Time,TemperatureF,DewpointF,PressureIn,WindDirection,WindDirectionDegrees,WindSpeedMPH,WindSpeedGustMPH,Humidity,HourlyPrecipIn,Conditions,Clouds,dailyrainin,SoftwareType,DateUTC
2013-03-24 00:00:00,31.4,26.2,29.92,SW,232,2.0,2.0,81,0.00,,,0.00,Wunderground v.1.15,2013-03-24 04:00:00,
2013-03-24 00:02:00,31.4,26.2,29.92,WSW,255,0.0,2.0,81,0.00,,,0.00,Wunderground v.1.15,2013-03-24 04:02:00,
2013-03-24 00:03:00,31.3,26.1,29.92,WSW,255,0.0,2.0,81,0.00,,,0.00,Wunderground v.1.15,2013-03-24 04:03:00,
2013-03-24 00:06:00,31.2,26.0,29.92,WSW,255,0.0,2.0,81,0.00,,,0.00,Wunderground v.1.15,2013-03-24 04:06:00,
2013-03-24 00:10:00,30.9,26.1,29.92,WSW,255,0.0,0.0,82,0.00,,,0.00,Wunderground v.1.15,2013-03-24 04:10:00,
2013-03-24 00:12:00,30.7,25.9,29.92,WSW,255,0.0,0.0,82,0.00,,,0.00,Wunderground v.1.15,2013-03-24 04:12:00,
2013-03-24 00:13:00,30.7,25.9,29.92,WSW,255,0.0,0.0,82,0.00,,,0.00,Wunderground v.1.15,2013-03-24 04:13:00,
2013-03-24 00:17:00,30.5,25.7,29.92,WSW,254,0.0,0.0,82,0.00,,,0.00,Wunderground v.1.15,2013-03-24 04:17:00,
2013-03-24 00:21:00,30.3,25.8,29.93,SW,235,0.0,1.0,83,0.00,,,0.00,Wunderground v.1.15,2013-03-24 04:21:00,
2013-03-24 00:23:00,30.2,25.7,29.93,SW,235,0.0,1.0,83,0.00,,,0.00,Wunderground v.1.15,2013-03-24 04:23:00,
2013-03-24 00:26:00,30.0,25.8,29.93,SW,235,0.0,1.0,84,0.00,,,0.00,Wunderground v.1.15,2013-03-24 04:26:00,
2013-03-24 00:29:00,30.0,25.8,29.93,SW,235,0.0,1.0,84,0.00,,,0.00,Wunderground v.1.15,2013-03-24 04:29:00,
2013-03-24 00:30:00,29.9,25.7,29.93,SW,235,0.0,0.0,84,0.00,,,0.00,Wunderground v.1.15,2013-03-24 04:30:00,
2013-03-24 00:31:00,30.0,25.8,29.92,SW,235,0.0,0.0,84,0.00,,,0.00,Wunderground v.1.15,2013-03-24 04:31:00,
2013-03-24 00:34:00,29.9,25.7,29.92,SW,235,0.0,0.0,84,0.00,,,0.00,Wunderground v.1.15,2013-03-24 04:34:00,
2013-03-24 00:36:00,29.9,25.7,29.92,SW,235,0.0,0.0,84,0.00,,,0.00,Wunderground v.1.15,2013-03-24 04:36:00,
2013-03-24 00:37:00,29.9,26.0,29.92,SW,235,0.0,0.0,84,0.00,,,0.00,weatherlink.com 1.10,2013-03-24 04:37:00,
2013-03-24 00:40:00,30.0,26.0,29.92,SW,235,0.0,0.0,85,0.00,,,0.00,Wunderground v.1.15,2013-03-24 04:40:00,
2013-03-24 00:43:00,30.1,25.8,29.92,SW,219,1.0,2.0,84,0.00,,,0.00,Wunderground v.1.15,2013-03-24 04:43:00,
2013-03-24 00:45:00,30.0,25.8,29.92,SW,219,0.0,2.0,84,0.00,,,0.00,Wunderground v.1.15,2013-03-24 04:45:00,
2013-03-24 00:46:00,30.0,25.8,29.92,SW,219,0.0,2.0,84,0.00,,,0.00,Wunderground v.1.15,2013-03-24 04:46:00,
2013-03-24 00:47:00,30.0,25.8,29.92,SW,219,0.0,2.0,84,0.00,,,0.00,Wunderground v.1.15,2013-03-24 04:47:00,
2013-03-24 00:50:00,30.2,26.2,29.92,SW,219,0.0,0.0,85,0.00,,,0.00,Wunderground v.1.15,2013-03-24 04:50:00,
2013-03-24 00:52:00,30.2,25.9,29.92,SW,219,0.0,0.0,84,0.00,,,0.00,Wunderground v.1.15,2013-03-24 04:52:00,
2013-03-24 00:54:00,30.3,26.0,29.92,SW,219,0.0,0.0,84,0.00,,,0.00,Wunderground v.1.15,2013-03-24 04:54:00,
2013-03-24 00:58:00,30.2,25.9,29.92,SW,219,0.0,0.0,84,0.00,,,0.00,Wunderground v.1.15,2013-03-24 04:58:00,
2013-03-24 01:00:00,30.3,26.0,29.92,SW,219,0.0,0.0,84,0.00,,,0.00,Wunderground v.1.15,2013-03-24 05:00:00,
2013-03-24 01:01:00,30.2,25.9,29.92,SW,219,0.0,0.0,84,0.00,,,0.00,Wunderground v.1.15,2013-03-24 05:01:00,
2013-03-24 01:03:00,30.2,25.7,29.91,SW,219,0.0,0.0,83,0.00,,,0.00,Wunderground v.1.15,2013-03-24 05:03:00,
2013-03-24 01:05:00,30.1,25.8,29.91,SW,219,0.0,0.0,84,0.00,,,0.00,Wunderground v.1.15,2013-03-24 05:05:00,
2013-03-24 01:07:00,30.1,25.8,29.91,SW,219,0.0,0.0,84,0.00,,,0.00,Wunderground v.1.15,2013-03-24 05:07:00,
2013-03-24 01:10:00,29.9,25.7,29.91,SW,219,0.0,0.0,84,0.00,,,0.00,Wunderground v.1.15,2013-03-24 05:10:00,
2013-03-24 01:11:00,29.9,25.7,29.91,SW,219,0.0,0.0,84,0.00,,,0.00,Wunderground v.1.15,2013-03-24 05:11:00,
2013-03-24 01:13:00,29.8,25.6,29.90,SW,219,0.0,0.0,84,0.00,,,0.00,Wunderground v.1.15,2013-03-24 05:13:00,
2013-03-24 01:17:00,29.7,25.5,29.90,SW,219,0.0,0.0,84,0.00,,,0.00,Wunderground v.1.15,2013-03-24 05:17:00,
2013-03-24 01:18:00,29.7,25.5,29.90,SW,219,0.0,0.0,84,0.00,,,0.00,Wunderground v.1.15,2013-03-24 05:18:00,
2013-03-24 01:20:00,29.7,25.5,29.91,SW,219,0.0,0.0,84,0.00,,,0.00,Wunderground v.1.15,2013-03-24 05:20:00,
2013-03-24 01:21:00,29.6,25.4,29.91,SW,219,0.0,0.0,84,0.00,,,0.00,Wunderground v.1.15,2013-03-24 05:21:00,
2013-03-24 01:23:00,29.6,25.0,29.91,SW,219,0.0,1.0,84,0.00,,,0.00,weatherlink.com 1.10,2013-03-24 05:23:00,
2013-03-24 01:27:00,29.4,25.2,29.91,SW,219,0.0,0.0,84,0.00,,,0.00,Wunderground v.1.15,2013-03-24 05:27:00,
2013-03-24 01:28:00,29.3,25.1,29.91,SW,219,1.0,1.0,84,0.00,,,0.00,Wunderground v.1.15,2013-03-24 05:28:00,
2013-03-24 01:29:00,29.3,25.1,29.91,SW,219,0.0,1.0,84,0.00,,,0.00,Wunderground v.1.15,2013-03-24 05:29:00,
2013-03-24 01:30:00,29.2,25.0,29.91,SW,219,1.0,1.0,84,0.00,,,0.00,Wunderground v.1.15,2013-03-24 05:30:00,
2013-03-24 01:35:00,28.9,25.0,29.92,SW,219,0.0,1.0,85,0.00,,,0.00,Wunderground v.1.15,2013-03-24 05:35:00,
2013-03-24 01:38:00,28.8,24.9,29.92,SW,219,1.0,1.0,85,0.00,,,0.00,Wunderground v.1.15,2013-03-24 05:38:00,
2013-03-24 01:39:00,28.7,25.0,29.91,SW,219,0.0,2.0,85,0.00,,,0.00,weatherlink.com 1.10,2013-03-24 05:39:00,
2013-03-24 01:41:00,28.6,24.7,29.91,SW,219,0.0,1.0,85,0.00,,,0.00,Wunderground v.1.15,2013-03-24 05:41:00,
2013-03-24 01:44:00,28.5,24.6,29.91,SW,219,1.0,1.0,85,0.00,,,0.00,Wunderground v.1.15,2013-03-24 05:44:00,
2013-03-24 01:47:00,28.4,24.5,29.92,SW,219,0.0,1.0,85,0.00,,,0.00,Wunderground v.1.15,2013-03-24 05:47:00,
2013-03-24 01:48:00,28.4,24.7,29.92,SW,219,0.0,1.0,86,0.00,,,0.00,Wunderground v.1.15,2013-03-24 05:48:00,
2013-03-24 01:53:00,28.2,24.6,29.91,SW,219,0.0,0.0,86,0.00,,,0.00,Wunderground v.1.15,2013-03-24 05:53:00,
2013-03-24 01:54:00,28.2,24.6,29.91,SW,219,0.0,0.0,86,0.00,,,0.00,Wunderground v.1.15,2013-03-24 05:54:00,
2013-03-24 01:55:00,28.2,24.6,29.91,SW,219,0.0,0.0,86,0.00,,,0.00,Wunderground v.1.15,2013-03-24 05:55:00,
2013-03-24 02:00:00,28.2,24.6,29.91,SW,219,0.0,0.0,86,0.00,,,0.00,Wunderground v.1.15,2013-03-24 06:00:00,
2013-03-24 02:01:00,28.2,24.6,29.91,SW,219,0.0,0.0,86,0.00,,,0.00,Wunderground v.1.15,2013-03-24 06:01:00,
2013-03-24 02:05:00,28.3,24.9,29.90,SW,219,0.0,0.0,87,0.00,,,0.00,Wunderground v.1.15,2013-03-24 06:05:00,
2013-03-24 02:06:00,28.4,25.0,29.90,SW,219,0.0,0.0,87,0.00,,,0.00,Wunderground v.1.15,2013-03-24 06:06:00,
2013-03-24 02:10:00,28.8,25.1,29.91,SW,219,0.0,0.0,86,0.00,,,0.00,Wunderground v.1.15,2013-03-24 06:10:00,
2013-03-24 02:11:00,28.8,25.1,29.91,SW,219,0.0,0.0,86,0.00,,,0.00,Wunderground v.1.15,2013-03-24 06:11:00,
2013-03-24 02:12:00,28.9,25.2,29.91,SW,219,0.0,0.0,86,0.00,,,0.00,Wunderground v.1.15,2013-03-24 06:12:00,
2013-03-24 02:16:00,29.3,25.4,29.92,SW,219,0.0,0.0,85,0.00,,,0.00,Wunderground v.1.15,2013-03-24 06:16:00,
2013-03-24 02:17:00,29.4,25.4,29.92,SW,219,0.0,1.0,85,0.00,,,0.00,Wunderground v.1.15,2013-03-24 06:17:00,
2013-03-24 02:20:00,29.4,25.2,29.92,SW,219,0.0,0.0,84,0.00,,,0.00,Wunderground v.1.15,2013-03-24 06:20:00,
2013-03-24 02:21:00,29.4,25.2,29.92,SW,219,0.0,0.0,84,0.00,,,0.00,Wunderground v.1.15,2013-03-24 06:21:00,
2013-03-24 02:22:00,29.3,25.1,29.92,SW,219,0.0,0.0,84,0.00,,,0.00,Wunderground v.1.15,2013-03-24 06:22:00,
2013-03-24 02:26:00,29.3,25.1,29.92,SW,219,0.0,0.0,84,0.00,,,0.00,Wunderground v.1.15,2013-03-24 06:26:00,
2013-03-24 02:27:00,29.2,25.0,29.92,SW,219,0.0,0.0,84,0.00,,,0.00,Wunderground v.1.15,2013-03-24 06:27:00,
2013-03-24 02:31:00,29.1,24.9,29.92,SW,219,0.0,0.0,84,0.00,,,0.00,Wunderground v.1.15,2013-03-24 06:31:00,
2013-03-24 02:32:00,29.1,24.9,29.92,SW,219,0.0,0.0,84,0.00,,,0.00,Wunderground v.1.15,2013-03-24 06:32:00,
2013-03-24 02:33:00,29.1,24.9,29.92,SW,219,0.0,0.0,84,0.00,,,0.00,Wunderground v.1.15,2013-03-24 06:33:00,
2013-03-24 02:37:00,29.0,25.1,29.92,SW,219,2.0,2.0,85,0.00,,,0.00,Wunderground v.1.15,2013-03-24 06:37:00,
2013-03-24 02:38:00,29.0,25.1,29.92,SW,219,2.0,2.0,85,0.00,,,0.00,Wunderground v.1.15,2013-03-24 06:38:00,
2013-03-24 02:42:00,29.0,25.1,29.92,SW,219,0.0,1.0,85,0.00,,,0.00,Wunderground v.1.15,2013-03-24 06:42:00,
2013-03-24 02:43:00,28.9,25.0,29.92,SW,219,0.0,1.0,85,0.00,,,0.00,Wunderground v.1.15,2013-03-24 06:43:00,
2013-03-24 02:44:00,28.9,25.0,29.92,SW,219,0.0,1.0,85,0.00,,,0.00,Wunderground v.1.15,2013-03-24 06:44:00,
2013-03-24 02:47:00,28.8,24.9,29.93,SW,219,0.0,2.0,85,0.00,,,0.00,Wunderground v.1.15,2013-03-24 06:47:00,
2013-03-24 02:49:00,28.8,24.9,29.93,SW,219,0.0,2.0,85,0.00,,,0.00,Wunderground v.1.15,2013-03-24 06:49:00,
2013-03-24 02:52:00,28.7,24.8,29.94,SW,219,0.0,2.0,85,0.00,,,0.00,Wunderground v.1.15,2013-03-24 06:52:00,
2013-03-24 02:53:00,28.7,24.8,29.94,SW,219,0.0,2.0,85,0.00,,,0.00,Wunderground v.1.15,2013-03-24 06:53:00,
2013-03-24 02:54:00,28.7,24.8,29.94,SW,219,0.0,2.0,85,0.00,,,0.00,Wunderground v.1.15,2013-03-24 06:54:00,
2013-03-24 02:58:00,28.6,24.7,29.94,SW,219,0.0,2.0,85,0.00,,,0.00,Wunderground v.1.15,2013-03-24 06:58:00,
2013-03-24 03:00:00,28.5,24.6,29.94,SW,219,0.0,0.0,85,0.00,,,0.00,Wunderground v.1.15,2013-03-24 07:00:00,
2013-03-24 03:01:00,28.5,24.6,29.94,SW,219,0.0,0.0,85,0.00,,,0.00,Wunderground v.1.15,2013-03-24 07:01:00,
2013-03-24 03:03:00,28.5,24.6,29.94,SW,219,0.0,0.0,85,0.00,,,0.00,Wunderground v.1.15,2013-03-24 07:03:00,
2013-03-24 03:05:00,28.4,24.5,29.94,SW,219,0.0,0.0,85,0.00,,,0.00,Wunderground v.1.15,2013-03-24 07:05:00,
2013-03-24 03:07:00,28.4,24.5,29.94,SW,219,1.0,1.0,85,0.00,,,0.00,Wunderground v.1.15,2013-03-24 07:07:00,
2013-03-24 03:09:00,28.4,24.7,29.94,SW,219,0.0,1.0,86,0.00,,,0.00,Wunderground v.1.15,2013-03-24 07:09:00,
2013-03-24 03:11:00,28.4,24.7,29.94,SW,219,0.0,0.0,86,0.00,,,0.00,Wunderground v.1.15,2013-03-24 07:11:00,
2013-03-24 03:13:00,28.4,24.7,29.95,SW,219,0.0,0.0,86,0.00,,,0.00,Wunderground v.1.15,2013-03-24 07:13:00,
2013-03-24 03:14:00,28.4,24.7,29.95,SW,219,0.0,0.0,86,0.00,,,0.00,Wunderground v.1.15,2013-03-24 07:14:00,
2013-03-24 03:15:00,28.4,24.7,29.94,SW,219,0.0,0.0,86,0.00,,,0.00,Wunderground v.1.15,2013-03-24 07:15:00,
2013-03-24 03:17:00,28.4,24.7,29.94,SW,219,1.0,1.0,86,0.00,,,0.00,Wunderground v.1.15,2013-03-24 07:17:00,
2013-03-24 03:18:00,28.5,24.8,29.94,SW,219,0.0,1.0,86,0.00,,,0.00,Wunderground v.1.15,2013-03-24 07:18:00,
2013-03-24 03:19:00,28.5,24.8,29.94,SW,219,0.0,1.0,86,0.00,,,0.00,Wunderground v.1.15,2013-03-24 07:19:00,
2013-03-24 03:20:00,28.6,24.9,29.94,SW,219,0.0,0.0,86,0.00,,,0.00,Wunderground v.1.15,2013-03-24 07:20:00,
2013-03-24 03:22:00,28.7,25.0,29.93,SW,219,0.0,0.0,86,0.00,,,0.00,Wunderground v.1.15,2013-03-24 07:22:00,
2013-03-24 03:23:00,28.8,25.1,29.93,SW,219,0.0,0.0,86,0.00,,,0.00,Wunderground v.1.15,2013-03-24 07:23:00,
2013-03-24 03:24:00,28.9,26.9,29.93,SW,219,0.0,0.0,92,0.00,,,0.00,Wunderground v.1.15,2013-03-24 07:24:00,
2013-03-24 03:25:00,29.0,27.0,29.94,SW,219,0.0,0.0,92,0.00,,,0.00,Wunderground v.1.15,2013-03-24 07:25:00,
2013-03-24 03:28:00,29.2,25.3,29.94,SW,219,0.0,0.0,85,0.00,,,0.00,Wunderground v.1.15,2013-03-24 07:28:00,
2013-03-24 03:29:00,29.3,25.1,29.94,SW,219,0.0,0.0,84,0.00,,,0.00,Wunderground v.1.15,2013-03-24 07:29:00,
2013-03-24 03:31:00,29.4,25.2,29.94,SW,219,0.0,0.0,84,0.00,,,0.00,Wunderground v.1.15,2013-03-24 07:31:00,
2013-03-24 03:33:00,29.6,25.4,29.94,SW,219,0.0,1.0,84,0.00,,,0.00,Wunderground v.1.15,2013-03-24 07:33:00,
2013-03-24 03:35:00,29.7,25.5,29.94,SW,219,0.0,1.0,84,0.00,,,0.00,Wunderground v.1.15,2013-03-24 07:35:00,
2013-03-24 03:36:00,29.8,25.6,29.94,SW,219,0.0,1.0,84,0.00,,,0.00,Wunderground v.1.15,2013-03-24 07:36:00,
2013-03-24 03:38:00,29.9,25.4,29.94,SW,219,0.0,1.0,83,0.00,,,0.00,Wunderground v.1.15,2013-03-24 07:38:00,
2013-03-24 03:40:00,29.9,25.4,29.94,SW,219,0.0,0.0,83,0.00,,,0.00,Wunderground v.1.15,2013-03-24 07:40:00,
2013-03-24 03:42:00,29.9,25.4,29.93,SW,219,1.0,1.0,83,0.00,,,0.00,Wunderground v.1.15,2013-03-24 07:42:00,
2013-03-24 03:44:00,30.0,25.5,29.93,SW,219,0.0,1.0,83,0.00,,,0.00,Wunderground v.1.15,2013-03-24 07:44:00,
2013-03-24 03:45:00,30.0,25.5,29.93,SW,219,1.0,1.0,83,0.00,,,0.00,Wunderground v.1.15,2013-03-24 07:45:00,
2013-03-24 03:47:00,30.1,25.6,29.93,SW,219,0.0,2.0,83,0.00,,,0.00,Wunderground v.1.15,2013-03-24 07:47:00,
2013-03-24 03:49:00,30.1,25.6,29.93,SW,219,1.0,2.0,83,0.00,,,0.00,Wunderground v.1.15,2013-03-24 07:49:00,
2013-03-24 03:50:00,30.1,25.6,29.93,SW,219,2.0,2.0,83,0.00,,,0.00,Wunderground v.1.15,2013-03-24 07:50:00,
2013-03-24 03:52:00,30.2,25.7,29.92,SW,219,1.0,2.0,83,0.00,,,0.00,Wunderground v.1.15,2013-03-24 07:52:00,
2013-03-24 03:54:00,30.3,25.8,29.92,SW,219,1.0,2.0,83,0.00,,,0.00,Wunderground v.1.15,2013-03-24 07:54:00,
2013-03-24 03:55:00,30.3,25.8,29.92,SW,219,1.0,2.0,83,0.00,,,0.00,Wunderground v.1.15,2013-03-24 07:55:00,
2013-03-24 03:58:00,30.3,25.8,29.92,SE,130,3.0,3.0,83,0.00,,,0.00,Wunderground v.1.15,2013-03-24 07:58:00,
2013-03-24 04:00:00,30.3,25.5,29.92,East,86,5.0,5.0,82,0.00,,,0.00,Wunderground v.1.15,2013-03-24 08:00:00,
2013-03-24 04:01:00,30.4,25.6,29.92,East,83,5.0,5.0,82,0.00,,,0.00,Wunderground v.1.15,2013-03-24 08:01:00,
2013-03-24 04:04:00,30.6,25.8,29.91,ENE,76,1.0,5.0,82,0.00,,,0.00,Wunderground v.1.15,2013-03-24 08:04:00,
2013-03-24 04:05:00,30.6,25.8,29.91,ENE,76,1.0,5.0,82,0.00,,,0.00,Wunderground v.1.15,2013-03-24 08:05:00,
2013-03-24 04:06:00,30.7,25.9,29.91,ENE,76,0.0,5.0,82,0.00,,,0.00,Wunderground v.1.15,2013-03-24 08:06:00,
2013-03-24 04:09:00,30.8,25.7,29.91,East,86,2.0,5.0,81,0.00,,,0.00,Wunderground v.1.15,2013-03-24 08:09:00,
2013-03-24 04:10:00,30.8,25.7,29.91,East,98,2.0,3.0,81,0.00,,,0.00,Wunderground v.1.15,2013-03-24 08:10:00,
2013-03-24 04:11:00,30.9,25.8,29.91,East,96,2.0,3.0,81,0.00,,,0.00,Wunderground v.1.15,2013-03-24 08:11:00,
2013-03-24 04:15:00,31.1,26.0,29.90,East,91,2.0,3.0,81,0.00,,,0.00,Wunderground v.1.15,2013-03-24 08:15:00,
2013-03-24 04:17:00,31.2,26.0,29.90,East,89,2.0,3.0,81,0.00,,,0.00,Wunderground v.1.15,2013-03-24 08:17:00,
2013-03-24 04:20:00,31.4,25.9,29.90,East,88,2.0,3.0,80,0.00,,,0.00,Wunderground v.1.15,2013-03-24 08:20:00,
2013-03-24 04:21:00,31.4,25.9,29.90,East,88,3.0,3.0,80,0.00,,,0.00,Wunderground v.1.15,2013-03-24 08:21:00,
2013-03-24 04:22:00,31.4,25.9,29.89,East,88,2.0,3.0,80,0.00,,,0.00,Wunderground v.1.15,2013-03-24 08:22:00,
2013-03-24 04:25:00,31.5,26.0,29.89,East,88,3.0,3.0,80,0.00,,,0.00,Wunderground v.1.15,2013-03-24 08:25:00,
2013-03-24 04:26:00,31.5,26.0,29.89,East,88,3.0,3.0,80,0.00,,,0.00,Wunderground v.1.15,2013-03-24 08:26:00,
2013-03-24 04:27:00,31.6,26.1,29.89,East,85,2.0,3.0,80,0.00,,,0.00,Wunderground v.1.15,2013-03-24 08:27:00,
2013-03-24 04:31:00,31.7,25.9,29.89,East,82,3.0,3.0,79,0.00,,,0.00,Wunderground v.1.15,2013-03-24 08:31:00,
2013-03-24 04:33:00,32.0,25.9,29.89,East,82,2.0,3.0,78,0.00,,,0.00,Wunderground v.1.15,2013-03-24 08:33:00,
2013-03-24 04:36:00,32.5,26.4,29.89,East,82,0.0,3.0,78,0.00,,,0.00,Wunderground v.1.15,2013-03-24 08:36:00,
2013-03-24 04:37:00,32.5,26.4,29.88,East,82,0.0,3.0,78,0.00,,,0.00,Wunderground v.1.15,2013-03-24 08:37:00,
2013-03-24 04:38:00,32.5,26.4,29.88,East,82,0.0,3.0,78,0.00,,,0.00,Wunderground v.1.15,2013-03-24 08:38:00,
2013-03-24 04:42:00,32.5,26.4,29.88,East,82,0.0,1.0,78,0.00,,,0.00,Wunderground v.1.15,2013-03-24 08:42:00,
2013-03-24 04:43:00,32.5,26.4,29.88,East,82,0.0,1.0,78,0.00,,,0.00,Wunderground v.1.15,2013-03-24 08:43:00,
2013-03-24 04:47:00,32.6,25.9,29.87,East,81,2.0,2.0,76,0.00,,,0.00,Wunderground v.1.15,2013-03-24 08:47:00,
2013-03-24 04:48:00,32.6,25.9,29.87,NE,54,3.0,3.0,76,0.00,,,0.00,Wunderground v.1.15,2013-03-24 08:48:00,
2013-03-24 04:52:00,32.6,25.9,29.86,NE,53,1.0,3.0,76,0.00,,,0.00,Wunderground v.1.15,2013-03-24 08:52:00,
2013-03-24 04:53:00,32.6,25.9,29.86,NE,53,1.0,3.0,76,0.00,,,0.00,Wunderground v.1.15,2013-03-24 08:53:00,
2013-03-24 04:54:00,32.6,25.9,29.86,NE,55,2.0,3.0,76,0.00,,,0.00,Wunderground v.1.15,2013-03-24 08:54:00,
2013-03-24 04:58:00,32.7,25.3,29.86,ENE,77,2.0,3.0,74,0.00,,,0.00,Wunderground v.1.15,2013-03-24 08:58:00,
2013-03-24 04:59:00,32.8,25.1,29.86,ENE,78,2.0,3.0,73,0.00,,,0.00,Wunderground v.1.15,2013-03-24 08:59:00,
2013-03-24 05:03:00,33.2,24.8,29.86,ENE,67,2.0,3.0,71,0.00,,,0.00,Wunderground v.1.15,2013-03-24 09:03:00,
2013-03-24 05:04:00,33.3,24.9,29.86,NE,44,2.0,3.0,71,0.00,,,0.00,Wunderground v.1.15,2013-03-24 09:04:00,
2013-03-24 05:08:00,33.5,24.8,29.86,NE,44,1.0,3.0,70,0.00,,,0.00,Wunderground v.1.15,2013-03-24 09:08:00,
2013-03-24 05:09:00,33.5,24.8,29.86,NE,44,0.0,3.0,70,0.00,,,0.00,Wunderground v.1.15,2013-03-24 09:09:00,
2013-03-24 05:13:00,33.6,24.5,29.86,NE,44,0.0,1.0,69,0.00,,,0.00,Wunderground v.1.15,2013-03-24 09:13:00,
2013-03-24 05:14:00,33.7,24.6,29.86,NE,44,0.0,1.0,69,0.00,,,0.00,Wunderground v.1.15,2013-03-24 09:14:00,
2013-03-24 05:15:00,33.7,24.6,29.86,NE,44,0.0,1.0,69,0.00,,,0.00,Wunderground v.1.15,2013-03-24 09:15:00,
2013-03-24 05:18:00,33.9,24.4,29.86,NE,44,2.0,2.0,68,0.00,,,0.00,Wunderground v.1.15,2013-03-24 09:18:00,
2013-03-24 05:19:00,33.9,24.4,29.86,NE,44,2.0,2.0,68,0.00,,,0.00,Wunderground v.1.15,2013-03-24 09:19:00,
2013-03-24 05:20:00,34.0,24.5,29.86,NE,44,2.0,2.0,68,0.00,,,0.00,Wunderground v.1.15,2013-03-24 09:20:00,
2013-03-24 05:21:00,34.0,24.5,29.85,NE,44,1.0,2.0,68,0.00,,,0.00,Wunderground v.1.15,2013-03-24 09:21:00,
2013-03-24 05:24:00,34.1,24.3,29.85,NE,44,1.0,2.0,67,0.00,,,0.00,Wunderground v.1.15,2013-03-24 09:24:00,
2013-03-24 05:25:00,34.2,24.4,29.85,NE,44,2.0,3.0,67,0.00,,,0.00,Wunderground v.1.15,2013-03-24 09:25:00,
2013-03-24 05:26:00,34.3,24.5,29.85,NE,44,1.0,3.0,67,0.00,,,0.00,Wunderground v.1.15,2013-03-24 09:26:00,
2013-03-24 05:29:00,34.3,24.5,29.85,NE,44,0.0,3.0,67,0.00,,,0.00,Wunderground v.1.15,2013-03-24 09:29:00,
2013-03-24 05:30:00,34.4,24.6,29.85,NE,44,2.0,3.0,67,0.00,,,0.00,Wunderground v.1.15,2013-03-24 09:30:00,
2013-03-24 05:32:00,34.4,24.6,29.85,NE,44,1.0,3.0,67,0.00,,,0.00,Wunderground v.1.15,2013-03-24 09:32:00,
2013-03-24 05:34:00,34.4,24.6,29.85,NE,44,2.0,3.0,67,0.00,,,0.00,Wunderground v.1.15,2013-03-24 09:34:00,
2013-03-24 05:35:00,34.3,24.8,29.85,NE,43,2.0,3.0,68,0.00,,,0.00,Wunderground v.1.15,2013-03-24 09:35:00,
2013-03-24 05:36:00,34.3,24.8,29.85,NE,43,0.0,3.0,68,0.00,,,0.00,Wunderground v.1.15,2013-03-24 09:36:00,
2013-03-24 05:38:00,34.3,24.5,29.85,NE,42,2.0,3.0,67,0.00,,,0.00,Wunderground v.1.15,2013-03-24 09:38:00,
2013-03-24 05:39:00,34.3,24.5,29.85,NE,43,2.0,3.0,67,0.00,,,0.00,Wunderground v.1.15,2013-03-24 09:39:00,
2013-03-24 05:40:00,34.3,24.5,29.85,NE,39,1.0,3.0,67,0.00,,,0.00,Wunderground v.1.15,2013-03-24 09:40:00,
2013-03-24 05:41:00,34.2,24.4,29.85,NE,40,2.0,3.0,67,0.00,,,0.00,Wunderground v.1.15,2013-03-24 09:41:00,
2013-03-24 05:44:00,34.3,24.5,29.85,NE,49,2.0,3.0,67,0.00,,,0.00,Wunderground v.1.15,2013-03-24 09:44:00,
2013-03-24 05:46:00,34.3,24.1,29.85,NE,42,2.0,4.0,66,0.00,,,0.00,Wunderground v.1.15,2013-03-24 09:46:00,
2013-03-24 05:47:00,34.4,24.2,29.85,NNE,27,3.0,4.0,66,0.00,,,0.00,Wunderground v.1.15,2013-03-24 09:47:00,
2013-03-24 05:49:00,34.5,24.3,29.86,East,94,2.0,4.0,66,0.00,,,0.00,Wunderground v.1.15,2013-03-24 09:49:00,
2013-03-24 05:52:00,34.6,24.4,29.86,ESE,102,1.0,5.0,66,0.00,,,0.00,Wunderground v.1.15,2013-03-24 09:52:00,
2013-03-24 05:54:00,34.6,24.4,29.86,ENE,65,2.0,5.0,66,0.00,,,0.00,Wunderground v.1.15,2013-03-24 09:54:00,
2013-03-24 05:57:00,34.6,24.0,29.86,NE,55,0.0,5.0,65,0.00,,,0.00,Wunderground v.1.15,2013-03-24 09:57:00,
2013-03-24 05:58:00,34.7,24.1,29.86,East,79,2.0,5.0,65,0.00,,,0.00,Wunderground v.1.15,2013-03-24 09:58:00,
2013-03-24 05:59:00,34.7,24.1,29.86,ENE,60,1.0,5.0,65,0.00,,,0.00,Wunderground v.1.15,2013-03-24 09:59:00,
2013-03-24 06:03:00,34.7,24.1,29.86,NE,39,3.0,6.0,65,0.00,,,0.00,Wunderground v.1.15,2013-03-24 10:03:00,
2013-03-24 06:04:00,34.7,24.1,29.86,NE,44,3.0,6.0,65,0.00,,,0.00,Wunderground v.1.15,2013-03-24 10:04:00,
2013-03-24 06:05:00,34.7,24.1,29.86,NE,46,2.0,6.0,65,0.00,,,0.00,Wunderground v.1.15,2013-03-24 10:05:00,
2013-03-24 06:08:00,34.7,24.1,29.86,ENE,62,2.0,6.0,65,0.00,,,0.00,Wunderground v.1.15,2013-03-24 10:08:00,
2013-03-24 06:10:00,34.7,24.1,29.85,ENE,61,1.0,2.0,65,0.00,,,0.00,Wunderground v.1.15,2013-03-24 10:10:00,
2013-03-24 06:14:00,34.6,24.0,29.86,East,92,2.0,3.0,65,0.00,,,0.00,Wunderground v.1.15,2013-03-24 10:14:00,
2013-03-24 06:15:00,34.6,24.0,29.86,East,97,5.0,6.0,65,0.00,,,0.00,Wunderground v.1.15,2013-03-24 10:15:00,
2013-03-24 06:17:00,34.6,24.0,29.86,East,89,5.0,6.0,65,0.00,,,0.00,Wunderground v.1.15,2013-03-24 10:17:00,
2013-03-24 06:20:00,34.7,23.8,29.86,East,86,1.0,2.0,64,0.00,,,0.00,Wunderground v.1.15,2013-03-24 10:20:00,
2013-03-24 06:22:00,34.7,23.8,29.86,ENE,78,2.0,3.0,64,0.00,,,0.00,Wunderground v.1.15,2013-03-24 10:22:00,
2013-03-24 06:25:00,34.7,23.8,29.86,East,94,3.0,7.0,64,0.00,,,0.00,Wunderground v.1.15,2013-03-24 10:25:00,
2013-03-24 06:27:00,34.7,23.8,29.86,East,89,3.0,7.0,64,0.00,,,0.00,Wunderground v.1.15,2013-03-24 10:27:00,
2013-03-24 06:30:00,34.7,23.8,29.86,ESE,103,4.0,5.0,64,0.00,,,0.00,Wunderground v.1.15,2013-03-24 10:30:00,
2013-03-24 06:31:00,34.7,23.8,29.86,ENE,59,1.0,5.0,64,0.00,,,0.00,Wunderground v.1.15,2013-03-24 10:31:00,
2013-03-24 06:32:00,34.7,24.1,29.86,ENE,71,3.0,5.0,65,0.00,,,0.00,Wunderground v.1.15,2013-03-24 10:32:00,
2013-03-24 06:35:00,34.6,24.0,29.86,NE,44,3.0,6.0,65,0.00,,,0.00,Wunderground v.1.15,2013-03-24 10:35:00,
2013-03-24 06:37:00,34.7,24.1,29.87,East,86,1.0,6.0,65,0.00,,,0.00,Wunderground v.1.15,2013-03-24 10:37:00,
2013-03-24 06:38:00,34.6,24.0,29.87,East,85,1.0,6.0,65,0.00,,,0.00,Wunderground v.1.15,2013-03-24 10:38:00,
2013-03-24 06:39:00,34.6,24.0,29.87,East,85,0.0,6.0,65,0.00,,,0.00,Wunderground v.1.15,2013-03-24 10:39:00,
2013-03-24 06:40:00,34.6,24.0,29.86,East,85,0.0,2.0,65,0.00,,,0.00,Wunderground v.1.15,2013-03-24 10:40:00,
2013-03-24 06:42:00,34.6,24.4,29.86,East,85,0.0,2.0,66,0.00,,,0.00,Wunderground v.1.15,2013-03-24 10:42:00,
2013-03-24 06:43:00,34.5,24.3,29.86,East,85,0.0,2.0,66,0.00,,,0.00,Wunderground v.1.15,2013-03-24 10:43:00,
2013-03-24 06:44:00,34.5,24.3,29.86,East,85,0.0,2.0,66,0.00,,,0.00,Wunderground v.1.15,2013-03-24 10:44:00,
2013-03-24 06:46:00,34.4,24.9,29.86,East,85,0.0,2.0,68,0.00,,,0.00,Wunderground v.1.15,2013-03-24 10:46:00,
2013-03-24 06:48:00,34.4,24.9,29.87,SSE,149,1.0,2.0,68,0.00,,,0.00,Wunderground v.1.15,2013-03-24 10:48:00,
2013-03-24 06:49:00,34.3,24.8,29.87,SE,142,1.0,3.0,68,0.00,,,0.00,Wunderground v.1.15,2013-03-24 10:49:00,
2013-03-24 06:51:00,34.3,25.2,29.87,ESE,108,1.0,2.0,69,0.00,,,0.00,Wunderground v.1.15,2013-03-24 10:51:00,
2013-03-24 06:53:00,34.2,25.4,29.87,ESE,105,1.0,2.0,70,0.00,,,0.00,Wunderground v.1.15,2013-03-24 10:53:00,
2013-03-24 06:54:00,34.2,25.4,29.87,East,88,2.0,2.0,70,0.00,,,0.00,Wunderground v.1.15,2013-03-24 10:54:00,
2013-03-24 06:56:00,34.1,25.0,29.87,NE,55,1.0,2.0,69,0.00,,,0.00,Wunderground v.1.15,2013-03-24 10:56:00,
2013-03-24 06:58:00,34.1,25.3,29.87,NE,55,1.0,2.0,70,0.00,,,0.00,Wunderground v.1.15,2013-03-24 10:58:00,
2013-03-24 06:59:00,34.1,25.3,29.87,NE,55,2.0,2.0,70,0.00,,,0.00,Wunderground v.1.15,2013-03-24 10:59:00,
2013-03-24 07:02:00,34.0,25.9,29.87,NE,54,1.0,2.0,72,0.00,,,0.00,Wunderground v.1.15,2013-03-24 11:02:00,
2013-03-24 07:03:00,33.9,25.8,29.87,ENE,59,1.0,2.0,72,0.00,,,0.00,Wunderground v.1.15,2013-03-24 11:03:00,
2013-03-24 07:04:00,33.9,25.8,29.87,ENE,59,0.0,2.0,72,0.00,,,0.00,Wunderground v.1.15,2013-03-24 11:04:00,
2013-03-24 07:07:00,33.8,25.4,29.87,ENE,59,1.0,2.0,71,0.00,,,0.00,Wunderground v.1.15,2013-03-24 11:07:00,
2013-03-24 07:09:00,33.7,25.6,29.87,ENE,59,0.0,2.0,72,0.00,,,0.00,Wunderground v.1.15,2013-03-24 11:09:00,
2013-03-24 07:10:00,33.7,25.3,29.87,ENE,59,0.0,1.0,71,0.00,,,0.00,Wunderground v.1.15,2013-03-24 11:10:00,
2013-03-24 07:13:00,33.6,25.5,29.86,ENE,59,0.0,1.0,72,0.00,,,0.00,Wunderground v.1.15,2013-03-24 11:13:00,
2013-03-24 07:14:00,33.6,25.5,29.87,ENE,59,0.0,1.0,72,0.00,,,0.00,Wunderground v.1.15,2013-03-24 11:14:00,
2013-03-24 07:15:00,33.5,25.4,29.86,ENE,59,0.0,1.0,72,0.00,,,0.00,Wunderground v.1.15,2013-03-24 11:15:00,
2013-03-24 07:18:00,33.5,25.8,29.87,ENE,59,1.0,1.0,73,0.00,,,0.00,Wunderground v.1.15,2013-03-24 11:18:00,
2013-03-24 07:19:00,33.5,25.8,29.87,ENE,59,0.0,1.0,73,0.00,,,0.00,Wunderground v.1.15,2013-03-24 11:19:00,
2013-03-24 07:20:00,33.4,26.0,29.86,ENE,59,1.0,1.0,74,0.00,,,0.00,Wunderground v.1.15,2013-03-24 11:20:00,
2013-03-24 07:24:00,33.2,26.1,29.86,NE,43,1.0,3.0,75,0.00,,,0.00,Wunderground v.1.15,2013-03-24 11:24:00,
2013-03-24 07:25:00,33.2,26.1,29.86,NE,35,1.0,3.0,75,0.00,,,0.00,Wunderground v.1.15,2013-03-24 11:25:00,
2013-03-24 07:26:00,33.2,26.8,29.86,NE,35,1.0,3.0,77,0.00,,,0.00,Wunderground v.1.15,2013-03-24 11:26:00,
2013-03-24 07:29:00,33.0,26.6,29.86,NE,36,2.0,3.0,77,0.00,,,0.00,Wunderground v.1.15,2013-03-24 11:29:00,
2013-03-24 07:30:00,33.0,26.6,29.86,NE,38,1.0,1.0,77,0.00,,,0.00,Wunderground v.1.15,2013-03-24 11:30:00,
2013-03-24 07:34:00,32.8,26.7,29.86,NE,36,2.0,2.0,78,0.00,,,0.00,Wunderground v.1.15,2013-03-24 11:34:00,
2013-03-24 07:35:00,32.7,26.3,29.86,North,5,1.0,2.0,77,0.00,,,0.00,Wunderground v.1.15,2013-03-24 11:35:00,
2013-03-24 07:39:00,32.5,26.7,29.85,ENE,60,1.0,2.0,79,0.00,,,0.00,Wunderground v.1.15,2013-03-24 11:39:00,
2013-03-24 07:40:00,32.5,26.7,29.85,ENE,60,1.0,2.0,79,0.00,,,0.00,Wunderground v.1.15,2013-03-24 11:40:00,
2013-03-24 07:45:00,32.2,26.7,29.85,ENE,71,2.0,2.0,80,0.00,,,0.01,Wunderground v.1.15,2013-03-24 11:45:00,
2013-03-24 07:46:00,32.2,26.7,29.85,ENE,71,0.0,2.0,80,0.00,,,0.01,Wunderground v.1.15,2013-03-24 11:46:00,
2013-03-24 07:50:00,32.1,26.9,29.85,East,80,1.0,1.0,81,0.00,,,0.01,Wunderground v.1.15,2013-03-24 11:50:00,
2013-03-24 07:51:00,32.0,26.8,29.85,East,80,0.0,1.0,81,0.00,,,0.01,Wunderground v.1.15,2013-03-24 11:51:00,
2013-03-24 07:55:00,31.9,27.0,29.85,East,88,1.0,3.0,82,0.00,,,0.01,Wunderground v.1.15,2013-03-24 11:55:00,
2013-03-24 07:56:00,31.9,27.0,29.84,East,86,1.0,3.0,82,0.00,,,0.01,Wunderground v.1.15,2013-03-24 11:56:00,
2013-03-24 07:57:00,31.9,27.0,29.84,East,101,2.0,3.0,82,0.00,,,0.01,Wunderground v.1.15,2013-03-24 11:57:00,
2013-03-24 08:00:00,31.8,27.2,29.84,ENE,78,4.0,4.0,83,0.00,,,0.01,Wunderground v.1.15,2013-03-24 12:00:00,
2013-03-24 08:01:00,31.8,27.2,29.84,ENE,77,1.0,4.0,83,0.00,,,0.01,Wunderground v.1.15,2013-03-24 12:01:00,
2013-03-24 08:02:00,31.8,27.2,29.84,ENE,78,1.0,4.0,83,0.00,,,0.01,Wunderground v.1.15,2013-03-24 12:02:00,
2013-03-24 08:06:00,31.7,27.4,29.84,East,80,1.0,4.0,84,0.00,,,0.01,Wunderground v.1.15,2013-03-24 12:06:00,
2013-03-24 08:07:00,31.7,27.4,29.84,ENE,66,3.0,4.0,84,0.00,,,0.01,Wunderground v.1.15,2013-03-24 12:07:00,
2013-03-24 08:12:00,31.5,27.2,29.84,ENE,67,0.0,3.0,84,0.00,,,0.01,Wunderground v.1.15,2013-03-24 12:12:00,
2013-03-24 08:17:00,31.4,27.1,29.84,ENE,60,0.0,4.0,84,0.00,,,0.02,Wunderground v.1.15,2013-03-24 12:17:00,
2013-03-24 08:18:00,31.4,27.1,29.84,East,80,1.0,4.0,84,0.00,,,0.02,Wunderground v.1.15,2013-03-24 12:18:00,
2013-03-24 08:22:00,31.3,27.3,29.83,NE,45,1.0,4.0,85,0.00,,,0.02,Wunderground v.1.15,2013-03-24 12:22:00,
2013-03-24 08:23:00,31.3,27.3,29.83,East,95,3.0,4.0,85,0.00,,,0.02,Wunderground v.1.15,2013-03-24 12:23:00,
2013-03-24 08:27:00,31.3,27.3,29.83,East,82,3.0,7.0,85,0.00,,,0.02,Wunderground v.1.15,2013-03-24 12:27:00,
2013-03-24 08:28:00,31.3,27.3,29.83,NE,50,2.0,7.0,85,0.00,,,0.02,Wunderground v.1.15,2013-03-24 12:28:00,
2013-03-24 08:33:00,31.3,27.6,29.83,NE,42,3.0,4.0,86,0.00,,,0.02,Wunderground v.1.15,2013-03-24 12:33:00,
2013-03-24 08:38:00,31.3,27.9,29.84,NE,48,0.0,5.0,87,0.00,,,0.02,Wunderground v.1.15,2013-03-24 12:38:00,
2013-03-24 08:39:00,31.3,27.9,29.84,NNE,25,1.0,5.0,87,0.00,,,0.02,Wunderground v.1.15,2013-03-24 12:39:00,
2013-03-24 08:43:00,31.3,27.9,29.83,ENE,76,1.0,2.0,87,0.00,,,0.02,Wunderground v.1.15,2013-03-24 12:43:00,
2013-03-24 08:44:00,31.3,27.9,29.83,ENE,78,1.0,2.0,87,0.00,,,0.02,Wunderground v.1.15,2013-03-24 12:44:00,
2013-03-24 08:49:00,31.2,27.5,29.83,NNE,22,3.0,4.0,86,0.00,,,0.02,Wunderground v.1.15,2013-03-24 12:49:00,
2013-03-24 08:54:00,31.2,27.2,29.83,NE,44,1.0,3.0,85,0.00,,,0.02,Wunderground v.1.15,2013-03-24 12:54:00,
2013-03-24 08:55:00,31.2,27.2,29.83,NE,51,2.0,3.0,85,0.00,,,0.02,Wunderground v.1.15,2013-03-24 12:55:00,
2013-03-24 08:59:00,31.2,27.2,29.83,NE,44,0.0,5.0,85,0.00,,,0.02,Wunderground v.1.15,2013-03-24 12:59:00,
2013-03-24 09:00:00,31.1,27.1,29.83,ENE,59,2.0,3.0,85,0.00,,,0.03,Wunderground v.1.15,2013-03-24 13:00:00,
2013-03-24 09:01:00,31.2,27.2,29.83,East,87,3.0,3.0,85,0.00,,,0.03,Wunderground v.1.15,2013-03-24 13:01:00,
2013-03-24 09:04:00,31.1,27.4,29.83,ENE,66,0.0,4.0,86,0.00,,,0.03,Wunderground v.1.15,2013-03-24 13:04:00,
2013-03-24 09:05:00,31.1,27.4,29.83,NNE,25,5.0,5.0,86,0.00,,,0.03,Wunderground v.1.15,2013-03-24 13:05:00,
2013-03-24 09:06:00,31.1,27.4,29.83,East,81,2.0,5.0,86,0.00,,,0.03,Wunderground v.1.15,2013-03-24 13:06:00,
2013-03-24 09:07:00,31.1,27.4,29.83,ESE,103,2.0,5.0,86,0.00,,,0.03,Wunderground v.1.15,2013-03-24 13:07:00,
2013-03-24 09:09:00,31.1,27.4,29.83,ENE,58,1.0,5.0,86,0.06,,,0.04,Wunderground v.1.15,2013-03-24 13:09:00,
2013-03-24 09:10:00,31.1,27.4,29.83,ENE,73,1.0,2.0,86,0.06,,,0.04,Wunderground v.1.15,2013-03-24 13:10:00,
2013-03-24 09:12:00,31.2,27.5,29.83,ENE,78,0.0,2.0,86,0.06,,,0.04,Wunderground v.1.15,2013-03-24 13:12:00,
2013-03-24 09:15:00,31.2,27.8,29.83,ENE,69,1.0,2.0,87,0.06,,,0.04,Wunderground v.1.15,2013-03-24 13:15:00,
2013-03-24 09:17:00,31.2,27.8,29.83,ESE,109,4.0,4.0,87,0.06,,,0.04,Wunderground v.1.15,2013-03-24 13:17:00,
2013-03-24 09:18:00,31.2,27.8,29.83,ESE,103,1.0,4.0,87,0.06,,,0.04,Wunderground v.1.15,2013-03-24 13:18:00,
2013-03-24 09:20:00,31.2,27.8,29.84,East,80,0.0,1.0,87,0.05,,,0.04,Wunderground v.1.15,2013-03-24 13:20:00,
2013-03-24 09:21:00,31.2,27.8,29.84,ENE,59,1.0,1.0,87,0.05,,,0.05,Wunderground v.1.15,2013-03-24 13:21:00,
2013-03-24 09:23:00,31.2,27.8,29.84,ENE,59,2.0,3.0,87,0.05,,,0.05,Wunderground v.1.15,2013-03-24 13:23:00,
2013-03-24 09:24:00,31.2,27.8,29.84,NE,56,3.0,3.0,87,0.05,,,0.05,Wunderground v.1.15,2013-03-24 13:24:00,
2013-03-24 09:25:00,31.2,27.8,29.84,East,86,1.0,5.0,87,0.05,,,0.05,Wunderground v.1.15,2013-03-24 13:25:00,
2013-03-24 09:27:00,31.2,27.8,29.84,ENE,59,2.0,5.0,87,0.05,,,0.05,Wunderground v.1.15,2013-03-24 13:27:00,
2013-03-24 09:28:00,31.2,28.1,29.84,NE,49,1.0,5.0,88,0.05,,,0.05,Wunderground v.1.15,2013-03-24 13:28:00,
2013-03-24 09:29:00,31.2,28.1,29.84,NE,46,1.0,5.0,88,0.05,,,0.05,Wunderground v.1.15,2013-03-24 13:29:00,
2013-03-24 09:30:00,31.2,28.1,29.84,ENE,63,1.0,2.0,88,0.05,,,0.05,Wunderground v.1.15,2013-03-24 13:30:00,
2013-03-24 09:32:00,31.2,28.1,29.84,ENE,65,4.0,4.0,88,0.05,,,0.05,Wunderground v.1.15,2013-03-24 13:32:00,
2013-03-24 09:34:00,31.2,28.1,29.84,NE,48,3.0,7.0,88,0.05,,,0.05,Wunderground v.1.15,2013-03-24 13:34:00,
2013-03-24 09:35:00,31.2,28.1,29.84,ENE,67,1.0,7.0,88,0.04,,,0.05,Wunderground v.1.15,2013-03-24 13:35:00,
2013-03-24 09:36:00,31.2,27.8,29.84,ENE,71,2.0,7.0,87,0.04,,,0.05,Wunderground v.1.15,2013-03-24 13:36:00,
2013-03-24 09:37:00,31.2,27.8,29.84,East,80,1.0,7.0,87,0.04,,,0.05,Wunderground v.1.15,2013-03-24 13:37:00,
2013-03-24 09:39:00,31.2,28.1,29.84,ENE,71,3.0,7.0,88,0.00,,,0.05,Wunderground v.1.15,2013-03-24 13:39:00,
2013-03-24 09:40:00,31.2,28.1,29.84,East,82,1.0,2.0,88,0.00,,,0.05,Wunderground v.1.15,2013-03-24 13:40:00,
2013-03-24 09:42:00,31.2,27.8,29.84,NE,49,2.0,5.0,87,0.00,,,0.05,Wunderground v.1.15,2013-03-24 13:42:00,
2013-03-24 09:43:00,31.2,27.8,29.84,East,96,6.0,6.0,87,0.00,,,0.05,Wunderground v.1.15,2013-03-24 13:43:00,
2013-03-24 09:44:00,31.2,28.1,29.84,East,92,6.0,8.0,88,0.00,,,0.05,Wunderground v.1.15,2013-03-24 13:44:00,
2013-03-24 09:45:00,31.2,28.1,29.83,East,84,2.0,8.0,88,0.00,,,0.05,Wunderground v.1.15,2013-03-24 13:45:00,
2013-03-24 09:47:00,31.2,28.1,29.83,ESE,104,5.0,8.0,88,0.00,,,0.05,Wunderground v.1.15,2013-03-24 13:47:00,
2013-03-24 09:48:00,31.2,28.1,29.83,ESE,103,2.0,8.0,88,0.00,,,0.05,Wunderground v.1.15,2013-03-24 13:48:00,
2013-03-24 09:49:00,31.2,28.1,29.83,ENE,78,3.0,8.0,88,0.00,,,0.05,Wunderground v.1.15,2013-03-24 13:49:00,
2013-03-24 09:50:00,31.1,28.0,29.83,NE,46,3.0,4.0,88,0.00,,,0.05,Wunderground v.1.15,2013-03-24 13:50:00,
2013-03-24 09:52:00,31.1,27.7,29.83,NE,40,2.0,8.0,87,0.00,,,0.05,Wunderground v.1.15,2013-03-24 13:52:00,
2013-03-24 09:53:00,31.1,27.7,29.83,East,84,2.0,8.0,87,0.00,,,0.05,Wunderground v.1.15,2013-03-24 13:53:00,
2013-03-24 09:54:00,31.0,27.6,29.82,NE,47,1.0,8.0,87,0.00,,,0.05,Wunderground v.1.15,2013-03-24 13:54:00,
2013-03-24 09:55:00,31.0,27.6,29.82,East,85,6.0,8.0,87,0.00,,,0.05,Wunderground v.1.15,2013-03-24 13:55:00,
2013-03-24 09:58:00,30.9,27.8,29.82,East,95,6.0,9.0,88,0.00,,,0.05,Wunderground v.1.15,2013-03-24 13:58:00,
2013-03-24 10:00:00,30.8,27.7,29.82,ENE,60,5.0,5.0,88,0.00,,,0.00,Wunderground v.1.15,2013-03-24 14:00:00,
2013-03-24 10:03:00,30.6,27.5,29.81,ENE,66,3.0,10.0,88,0.00,,,0.00,Wunderground v.1.15,2013-03-24 14:03:00,
2013-03-24 10:05:00,30.5,27.4,29.81,East,84,6.0,10.0,88,0.00,,,0.00,Wunderground v.1.15,2013-03-24 14:05:00,
2013-03-24 10:08:00,30.3,27.2,29.81,ENE,69,7.0,10.0,88,0.00,,,0.00,Wunderground v.1.15,2013-03-24 14:08:00,
2013-03-24 10:09:00,30.3,27.2,29.81,ESE,113,7.0,10.0,88,0.00,,,0.00,Wunderground v.1.15,2013-03-24 14:09:00,
2013-03-24 10:10:00,30.3,27.2,29.80,ENE,68,10.0,10.0,88,0.00,,,0.00,Wunderground v.1.15,2013-03-24 14:10:00,
2013-03-24 10:12:00,30.2,27.1,29.80,East,79,7.0,13.0,88,0.00,,,0.00,Wunderground v.1.15,2013-03-24 14:12:00,
2013-03-24 10:13:00,30.1,27.3,29.80,ENE,69,3.0,13.0,89,0.00,,,0.00,Wunderground v.1.15,2013-03-24 14:13:00,
2013-03-24 10:14:00,30.1,27.3,29.80,East,90,3.0,13.0,89,0.00,,,0.00,Wunderground v.1.15,2013-03-24 14:14:00,
2013-03-24 10:16:00,30.1,27.3,29.80,East,93,3.0,13.0,89,0.00,,,0.00,Wunderground v.1.15,2013-03-24 14:16:00,
2013-03-24 10:17:00,30.0,27.2,29.80,ESE,110,7.0,13.0,89,0.00,,,0.00,Wunderground v.1.15,2013-03-24 14:17:00,
2013-03-24 10:19:00,30.0,27.2,29.80,ESE,102,8.0,14.0,89,0.00,,,0.00,Wunderground v.1.15,2013-03-24 14:19:00,
2013-03-24 10:21:00,29.9,27.1,29.79,ENE,73,5.0,7.0,89,0.00,,,0.00,Wunderground v.1.15,2013-03-24 14:21:00,
2013-03-24 10:23:00,29.9,27.1,29.79,ENE,59,5.0,8.0,89,0.00,,,0.00,Wunderground v.1.15,2013-03-24 14:23:00,
2013-03-24 10:24:00,29.9,27.3,29.79,SE,131,5.0,8.0,90,0.00,,,0.00,Wunderground v.1.15,2013-03-24 14:24:00,
2013-03-24 10:27:00,29.8,27.2,29.79,East,87,3.0,8.0,90,0.00,,,0.00,Wunderground v.1.15,2013-03-24 14:27:00,
2013-03-24 10:28:00,29.8,27.2,29.79,ENE,72,3.0,8.0,90,0.00,,,0.00,Wunderground v.1.15,2013-03-24 14:28:00,
2013-03-24 10:29:00,29.8,27.2,29.79,ENE,60,10.0,10.0,90,0.00,,,0.00,Wunderground v.1.15,2013-03-24 14:29:00,
2013-03-24 10:32:00,29.8,27.2,29.79,East,83,1.0,8.0,90,0.00,,,0.00,Wunderground v.1.15,2013-03-24 14:32:00,
2013-03-24 10:33:00,29.8,27.2,29.79,East,84,1.0,8.0,90,0.00,,,0.00,Wunderground v.1.15,2013-03-24 14:33:00,
2013-03-24 10:34:00,29.8,27.2,29.79,NE,43,3.0,8.0,90,0.00,,,0.00,Wunderground v.1.15,2013-03-24 14:34:00,
2013-03-24 10:38:00,29.8,27.2,29.79,ENE,73,2.0,8.0,90,0.00,,,0.00,Wunderground v.1.15,2013-03-24 14:38:00,
2013-03-24 10:39:00,29.8,27.2,29.79,ENE,74,1.0,8.0,90,0.00,,,0.00,Wunderground v.1.15,2013-03-24 14:39:00,
2013-03-24 10:40:00,29.8,27.2,29.79,ENE,65,1.0,3.0,90,0.00,,,0.00,Wunderground v.1.15,2013-03-24 14:40:00,
2013-03-24 10:43:00,29.7,27.1,29.80,NNE,22,0.0,4.0,90,0.00,,,0.00,Wunderground v.1.15,2013-03-24 14:43:00,
2013-03-24 10:44:00,29.7,27.1,29.80,NE,40,3.0,4.0,90,0.00,,,0.00,Wunderground v.1.15,2013-03-24 14:44:00,
2013-03-24 10:45:00,29.7,27.1,29.80,South,178,1.0,6.0,90,0.00,,,0.00,Wunderground v.1.15,2013-03-24 14:45:00,
2013-03-24 10:48:00,29.7,27.1,29.81,SE,139,3.0,6.0,90,0.00,,,0.00,Wunderground v.1.15,2013-03-24 14:48:00,
2013-03-24 10:49:00,29.7,27.1,29.81,ESE,107,2.0,6.0,90,0.00,,,0.00,Wunderground v.1.15,2013-03-24 14:49:00,
2013-03-24 10:50:00,29.7,27.1,29.81,SE,135,2.0,2.0,90,0.00,,,0.00,Wunderground v.1.15,2013-03-24 14:50:00,
2013-03-24 10:51:00,29.7,27.1,29.81,East,87,2.0,2.0,90,0.00,,,0.00,Wunderground v.1.15,2013-03-24 14:51:00,
2013-03-24 10:53:00,29.7,27.1,29.81,ESE,112,1.0,3.0,90,0.00,,,0.00,Wunderground v.1.15,2013-03-24 14:53:00,
2013-03-24 10:55:00,29.7,27.4,29.81,ESE,103,5.0,5.0,91,0.00,,,0.00,Wunderground v.1.15,2013-03-24 14:55:00,
2013-03-24 10:56:00,29.7,27.4,29.81,ENE,73,4.0,8.0,91,0.00,,,0.00,Wunderground v.1.15,2013-03-24 14:56:00,
2013-03-24 10:58:00,29.7,27.4,29.81,East,82,2.0,8.0,91,0.00,,,0.00,Wunderground v.1.15,2013-03-24 14:58:00,
2013-03-24 11:00:00,29.7,27.4,29.81,ENE,59,1.0,2.0,91,0.00,,,0.00,Wunderground v.1.15,2013-03-24 15:00:00,
2013-03-24 11:02:00,29.8,27.5,29.81,ENE,63,2.0,6.0,91,0.00,,,0.00,Wunderground v.1.15,2013-03-24 15:02:00,
2013-03-24 11:04:00,29.7,27.4,29.81,ENE,78,0.0,9.0,91,0.00,,,0.00,Wunderground v.1.15,2013-03-24 15:04:00,
2013-03-24 11:05:00,29.7,27.1,29.81,ENE,63,5.0,9.0,90,0.00,,,0.00,Wunderground v.1.15,2013-03-24 15:05:00,
2013-03-24 11:07:00,29.7,27.1,29.81,NE,41,5.0,9.0,90,0.00,,,0.00,Wunderground v.1.15,2013-03-24 15:07:00,
2013-03-24 11:09:00,29.5,26.9,29.81,ENE,71,4.0,9.0,90,0.00,,,0.00,Wunderground v.1.15,2013-03-24 15:09:00,
2013-03-24 11:10:00,29.4,26.8,29.81,ENE,67,7.0,9.0,90,0.00,,,0.00,Wunderground v.1.15,2013-03-24 15:10:00,
2013-03-24 11:12:00,29.4,26.8,29.81,ENE,63,3.0,9.0,90,0.00,,,0.00,Wunderground v.1.15,2013-03-24 15:12:00,
2013-03-24 11:14:00,29.2,26.6,29.80,East,84,3.0,9.0,90,0.00,,,0.00,Wunderground v.1.15,2013-03-24 15:14:00,
2013-03-24 11:15:00,29.2,26.6,29.80,ENE,76,2.0,11.0,90,0.00,,,0.00,Wunderground v.1.15,2013-03-24 15:15:00,
2013-03-24 11:16:00,29.2,27.0,29.80,ESE,102,4.0,11.0,90,0.00,,,0.00,weatherlink.com 1.10,2013-03-24 15:16:00,
2013-03-24 11:17:00,29.2,26.6,29.80,NNE,20,2.0,11.0,90,0.00,,,0.00,Wunderground v.1.15,2013-03-24 15:17:00,
2013-03-24 11:20:00,29.2,26.6,29.80,NE,46,2.0,5.0,90,0.00,,,0.00,Wunderground v.1.15,2013-03-24 15:20:00,
2013-03-24 11:22:00,29.2,26.9,29.79,NNE,30,5.0,6.0,91,0.00,,,0.00,Wunderground v.1.15,2013-03-24 15:22:00,
2013-03-24 11:23:00,29.2,26.9,29.79,East,80,5.0,7.0,91,0.00,,,0.00,Wunderground v.1.15,2013-03-24 15:23:00,
2013-03-24 11:25:00,29.2,26.9,29.78,NE,38,3.0,7.0,91,0.00,,,0.00,Wunderground v.1.15,2013-03-24 15:25:00,
2013-03-24 11:27:00,29.2,26.9,29.78,SE,128,4.0,9.0,91,0.00,,,0.00,Wunderground v.1.15,2013-03-24 15:27:00,
2013-03-24 11:28:00,29.2,26.9,29.78,East,79,3.0,9.0,91,0.00,,,0.00,Wunderground v.1.15,2013-03-24 15:28:00,
2013-03-24 11:29:00,29.2,26.9,29.78,ENE,74,3.0,9.0,91,0.00,,,0.00,Wunderground v.1.15,2013-03-24 15:29:00,
2013-03-24 11:30:00,29.2,26.9,29.77,NE,36,4.0,7.0,91,0.00,,,0.00,Wunderground v.1.15,2013-03-24 15:30:00,
2013-03-24 11:32:00,29.2,26.9,29.77,East,81,9.0,10.0,91,0.00,,,0.00,Wunderground v.1.15,2013-03-24 15:32:00,
2013-03-24 11:34:00,29.3,27.0,29.77,NNE,22,4.0,10.0,91,0.00,,,0.00,Wunderground v.1.15,2013-03-24 15:34:00,
2013-03-24 11:36:00,29.3,27.0,29.77,East,94,5.0,10.0,91,0.00,,,0.00,Wunderground v.1.15,2013-03-24 15:36:00,
2013-03-24 11:38:00,29.3,27.0,29.77,East,80,9.0,13.0,91,0.00,,,0.00,Wunderground v.1.15,2013-03-24 15:38:00,
2013-03-24 11:39:00,29.4,27.1,29.76,ENE,74,8.0,13.0,91,0.00,,,0.00,Wunderground v.1.15,2013-03-24 15:39:00,
2013-03-24 11:40:00,29.4,27.1,29.76,ENE,76,2.0,5.0,91,0.00,,,0.00,Wunderground v.1.15,2013-03-24 15:40:00,
2013-03-24 11:42:00,29.4,27.1,29.76,NE,37,4.0,9.0,91,0.00,,,0.00,Wunderground v.1.15,2013-03-24 15:42:00,
2013-03-24 11:43:00,29.4,27.1,29.76,ENE,70,8.0,9.0,91,0.00,,,0.00,Wunderground v.1.15,2013-03-24 15:43:00,
2013-03-24 11:44:00,29.5,27.2,29.76,East,80,5.0,9.0,91,0.00,,,0.00,Wunderground v.1.15,2013-03-24 15:44:00,
2013-03-24 11:45:00,29.5,27.2,29.76,NE,53,2.0,9.0,91,0.00,,,0.00,Wunderground v.1.15,2013-03-24 15:45:00,
2013-03-24 11:47:00,29.5,27.2,29.76,ESE,105,5.0,13.0,91,0.00,,,0.00,Wunderground v.1.15,2013-03-24 15:47:00,
2013-03-24 11:48:00,29.5,27.2,29.76,East,84,3.0,13.0,91,0.00,,,0.00,Wunderground v.1.15,2013-03-24 15:48:00,
2013-03-24 11:49:00,29.5,27.2,29.76,ENE,75,3.0,13.0,91,0.00,,,0.01,Wunderground v.1.15,2013-03-24 15:49:00,
2013-03-24 11:51:00,29.6,27.3,29.76,East,87,7.0,10.0,91,0.00,,,0.01,Wunderground v.1.15,2013-03-24 15:51:00,
2013-03-24 11:52:00,29.6,27.3,29.76,East,84,8.0,10.0,91,0.00,,,0.01,Wunderground v.1.15,2013-03-24 15:52:00,
2013-03-24 11:53:00,29.6,27.3,29.76,East,93,3.0,10.0,91,0.00,,,0.01,Wunderground v.1.15,2013-03-24 15:53:00,
2013-03-24 11:55:00,29.6,27.3,29.76,East,99,6.0,10.0,91,0.00,,,0.01,Wunderground v.1.15,2013-03-24 15:55:00,
2013-03-24 11:56:00,29.5,27.2,29.77,East,91,6.0,10.0,91,0.00,,,0.01,Wunderground v.1.15,2013-03-24 15:56:00,
2013-03-24 11:58:00,29.6,27.3,29.77,ESE,111,3.0,10.0,91,0.00,,,0.01,Wunderground v.1.15,2013-03-24 15:58:00,
2013-03-24 12:00:00,29.6,27.3,29.76,ENE,59,7.0,8.0,91,0.00,,,0.01,Wunderground v.1.15,2013-03-24 16:00:00,
2013-03-24 12:01:00,29.6,27.3,29.76,NNE,26,3.0,8.0,91,0.00,,,0.01,Wunderground v.1.15,2013-03-24 16:01:00,
2013-03-24 12:03:00,29.7,27.4,29.76,East,88,6.0,8.0,91,0.00,,,0.01,Wunderground v.1.15,2013-03-24 16:03:00,
2013-03-24 12:04:00,29.7,27.4,29.76,East,99,6.0,9.0,91,0.00,,,0.01,Wunderground v.1.15,2013-03-24 16:04:00,
2013-03-24 12:05:00,29.7,27.4,29.76,ENE,64,8.0,10.0,91,0.00,,,0.01,Wunderground v.1.15,2013-03-24 16:05:00,
2013-03-24 12:06:00,29.7,27.4,29.76,ENE,72,4.0,10.0,91,0.00,,,0.01,Wunderground v.1.15,2013-03-24 16:06:00,
2013-03-24 12:08:00,29.7,27.4,29.76,ESE,103,2.0,10.0,91,0.00,,,0.01,Wunderground v.1.15,2013-03-24 16:08:00,
2013-03-24 12:10:00,29.7,27.4,29.76,ENE,70,8.0,8.0,91,0.00,,,0.01,Wunderground v.1.15,2013-03-24 16:10:00,
2013-03-24 12:12:00,29.7,27.4,29.76,ESE,103,7.0,13.0,91,0.00,,,0.01,Wunderground v.1.15,2013-03-24 16:12:00,
2013-03-24 12:13:00,29.7,27.4,29.76,East,84,3.0,13.0,91,0.00,,,0.01,Wunderground v.1.15,2013-03-24 16:13:00,
2013-03-24 12:15:00,29.6,27.3,29.76,East,88,5.0,13.0,91,0.00,,,0.01,Wunderground v.1.15,2013-03-24 16:15:00,
2013-03-24 12:18:00,29.6,27.3,29.76,East,85,7.0,13.0,91,0.00,,,0.01,Wunderground v.1.15,2013-03-24 16:18:00,
2013-03-24 12:19:00,29.6,27.3,29.76,ENE,62,4.0,13.0,91,0.00,,,0.01,Wunderground v.1.15,2013-03-24 16:19:00,
2013-03-24 12:20:00,29.6,27.3,29.76,ENE,66,9.0,15.0,91,0.00,,,0.01,Wunderground v.1.15,2013-03-24 16:20:00,
2013-03-24 12:23:00,29.6,27.0,29.76,ENE,61,5.0,18.0,91,0.02,,,0.02,weatherlink.com 1.10,2013-03-24 16:23:00,
2013-03-24 12:24:00,29.6,27.3,29.76,ENE,57,9.0,18.0,91,0.00,,,0.02,Wunderground v.1.15,2013-03-24 16:24:00,
2013-03-24 12:25:00,29.6,27.3,29.76,East,88,9.0,18.0,91,0.00,,,0.02,Wunderground v.1.15,2013-03-24 16:25:00,
2013-03-24 12:26:00,29.6,27.3,29.76,East,84,3.0,18.0,91,0.00,,,0.02,Wunderground v.1.15,2013-03-24 16:26:00,
2013-03-24 12:28:00,29.6,27.3,29.75,East,88,7.0,18.0,91,0.00,,,0.02,Wunderground v.1.15,2013-03-24 16:28:00,
2013-03-24 12:29:00,29.6,27.3,29.75,NE,49,3.0,18.0,91,0.00,,,0.02,Wunderground v.1.15,2013-03-24 16:29:00,
2013-03-24 12:32:00,29.6,27.3,29.75,East,98,7.0,8.0,91,0.00,,,0.02,Wunderground v.1.15,2013-03-24 16:32:00,
2013-03-24 12:33:00,29.7,27.4,29.75,NE,51,4.0,8.0,91,0.00,,,0.02,Wunderground v.1.15,2013-03-24 16:33:00,
2013-03-24 12:34:00,29.7,27.4,29.75,ENE,67,7.0,9.0,91,0.00,,,0.02,Wunderground v.1.15,2013-03-24 16:34:00,
2013-03-24 12:37:00,29.7,27.4,29.74,East,91,5.0,10.0,91,0.00,,,0.02,Wunderground v.1.15,2013-03-24 16:37:00,
2013-03-24 12:39:00,29.8,27.5,29.74,ENE,66,3.0,10.0,91,0.00,,,0.02,Wunderground v.1.15,2013-03-24 16:39:00,
2013-03-24 12:42:00,29.8,27.2,29.74,NE,54,3.0,9.0,90,0.00,,,0.02,Wunderground v.1.15,2013-03-24 16:42:00,
2013-03-24 12:43:00,29.8,27.2,29.74,ENE,65,4.0,10.0,90,0.00,,,0.02,Wunderground v.1.15,2013-03-24 16:43:00,
2013-03-24 12:44:00,29.8,27.2,29.75,East,94,6.0,11.0,90,0.00,,,0.02,Wunderground v.1.15,2013-03-24 16:44:00,
2013-03-24 12:48:00,29.9,27.6,29.74,East,86,6.0,11.0,91,0.00,,,0.02,Wunderground v.1.15,2013-03-24 16:48:00,
2013-03-24 12:50:00,30.0,27.7,29.74,ESE,114,10.0,10.0,91,0.00,,,0.02,Wunderground v.1.15,2013-03-24 16:50:00,
2013-03-24 12:53:00,30.0,27.7,29.74,ENE,73,4.0,10.0,91,0.00,,,0.02,Wunderground v.1.15,2013-03-24 16:53:00,
2013-03-24 12:55:00,30.0,27.7,29.74,ENE,62,2.0,10.0,91,0.00,,,0.02,Wunderground v.1.15,2013-03-24 16:55:00,
2013-03-24 12:58:00,29.9,27.6,29.74,ESE,105,7.0,10.0,91,0.00,,,0.02,Wunderground v.1.15,2013-03-24 16:58:00,
2013-03-24 12:59:00,29.9,27.6,29.74,NE,49,5.0,10.0,91,0.00,,,0.02,Wunderground v.1.15,2013-03-24 16:59:00,
2013-03-24 13:00:00,29.8,27.2,29.74,East,79,5.0,5.0,90,0.00,,,0.02,Wunderground v.1.15,2013-03-24 17:00:00,
2013-03-24 13:01:00,29.8,27.2,29.74,NE,43,3.0,5.0,90,0.00,,,0.02,Wunderground v.1.15,2013-03-24 17:01:00,
2013-03-24 13:04:00,29.8,27.2,29.74,ENE,76,2.0,7.0,90,0.00,,,0.02,Wunderground v.1.15,2013-03-24 17:04:00,
2013-03-24 13:05:00,29.7,27.1,29.74,East,79,2.0,7.0,90,0.00,,,0.02,Wunderground v.1.15,2013-03-24 17:05:00,
2013-03-24 13:06:00,29.7,27.1,29.74,ENE,65,1.0,7.0,90,0.00,,,0.02,Wunderground v.1.15,2013-03-24 17:06:00,
2013-03-24 13:09:00,29.7,27.1,29.74,ENE,69,2.0,7.0,90,0.00,,,0.02,Wunderground v.1.15,2013-03-24 17:09:00,
2013-03-24 13:10:00,29.7,27.1,29.74,ENE,78,2.0,3.0,90,0.00,,,0.02,Wunderground v.1.15,2013-03-24 17:10:00,
2013-03-24 13:11:00,29.6,27.0,29.74,SE,144,4.0,8.0,90,0.00,,,0.03,Wunderground v.1.15,2013-03-24 17:11:00,
2013-03-24 13:13:00,29.6,27.0,29.74,ENE,73,2.0,8.0,90,0.00,,,0.03,Wunderground v.1.15,2013-03-24 17:13:00,
2013-03-24 13:14:00,29.6,27.3,29.73,ESE,104,4.0,8.0,91,0.00,,,0.03,Wunderground v.1.15,2013-03-24 17:14:00,
2013-03-24 13:15:00,29.6,27.3,29.73,ENE,57,4.0,8.0,91,0.00,,,0.03,Wunderground v.1.15,2013-03-24 17:15:00,
2013-03-24 13:16:00,29.6,27.3,29.73,NE,56,3.0,8.0,91,0.00,,,0.03,Wunderground v.1.15,2013-03-24 17:16:00,
2013-03-24 13:18:00,29.7,27.4,29.73,ENE,60,5.0,8.0,91,0.00,,,0.03,Wunderground v.1.15,2013-03-24 17:18:00,
2013-03-24 13:19:00,29.7,27.4,29.73,NE,44,2.0,8.0,91,0.00,,,0.03,Wunderground v.1.15,2013-03-24 17:19:00,
2013-03-24 13:21:00,29.7,27.4,29.73,NE,42,4.0,5.0,91,0.00,,,0.03,Wunderground v.1.15,2013-03-24 17:21:00,
2013-03-24 13:23:00,29.7,27.4,29.74,NE,45,5.0,7.0,91,0.00,,,0.03,Wunderground v.1.15,2013-03-24 17:23:00,
2013-03-24 13:24:00,29.7,27.4,29.74,East,82,1.0,7.0,91,0.00,,,0.03,Wunderground v.1.15,2013-03-24 17:24:00,
2013-03-24 13:26:00,29.7,27.4,29.74,ENE,78,5.0,7.0,91,0.00,,,0.03,Wunderground v.1.15,2013-03-24 17:26:00,
2013-03-24 13:28:00,29.7,27.4,29.73,NE,50,5.0,9.0,91,0.00,,,0.03,Wunderground v.1.15,2013-03-24 17:28:00,
2013-03-24 13:29:00,29.7,27.4,29.73,East,84,3.0,9.0,91,0.00,,,0.03,Wunderground v.1.15,2013-03-24 17:29:00,
2013-03-24 13:30:00,29.7,27.4,29.73,ENE,71,4.0,4.0,91,0.00,,,0.03,Wunderground v.1.15,2013-03-24 17:30:00,
2013-03-24 13:32:00,29.7,27.4,29.73,ENE,64,2.0,7.0,91,0.00,,,0.03,Wunderground v.1.15,2013-03-24 17:32:00,
2013-03-24 13:34:00,29.7,27.4,29.73,East,94,3.0,7.0,91,0.00,,,0.03,Wunderground v.1.15,2013-03-24 17:34:00,
2013-03-24 13:35:00,29.8,27.5,29.73,NE,47,2.0,7.0,91,0.00,,,0.03,Wunderground v.1.15,2013-03-24 17:35:00,
2013-03-24 13:37:00,29.8,27.5,29.73,East,81,5.0,7.0,91,0.00,,,0.03,Wunderground v.1.15,2013-03-24 17:37:00,
2013-03-24 13:39:00,29.7,27.4,29.73,East,95,3.0,7.0,91,0.00,,,0.03,Wunderground v.1.15,2013-03-24 17:39:00,
2013-03-24 13:40:00,29.7,27.4,29.73,ENE,69,2.0,3.0,91,0.00,,,0.03,Wunderground v.1.15,2013-03-24 17:40:00,
2013-03-24 13:42:00,29.8,27.5,29.72,ESE,105,4.0,6.0,91,0.00,,,0.03,Wunderground v.1.15,2013-03-24 17:42:00,
2013-03-24 13:44:00,29.7,27.4,29.72,ENE,74,1.0,6.0,91,0.00,,,0.03,Wunderground v.1.15,2013-03-24 17:44:00,
2013-03-24 13:45:00,29.8,27.5,29.72,East,81,2.0,6.0,91,0.00,,,0.03,Wunderground v.1.15,2013-03-24 17:45:00,
2013-03-24 13:47:00,29.8,27.5,29.72,SE,125,6.0,8.0,91,0.00,,,0.03,Wunderground v.1.15,2013-03-24 17:47:00,
2013-03-24 13:49:00,29.9,27.6,29.71,East,82,5.0,8.0,91,0.00,,,0.03,Wunderground v.1.15,2013-03-24 17:49:00,
2013-03-24 13:50:00,29.9,27.6,29.71,ENE,73,4.0,4.0,91,0.00,,,0.03,Wunderground v.1.15,2013-03-24 17:50:00,
2013-03-24 13:51:00,29.9,27.9,29.72,East,89,7.0,7.0,92,0.00,,,0.03,Wunderground v.1.15,2013-03-24 17:51:00,
2013-03-24 13:53:00,30.0,27.7,29.71,ENE,64,4.0,7.0,91,0.00,,,0.03,Wunderground v.1.15,2013-03-24 17:53:00,
2013-03-24 13:54:00,30.0,28.0,29.71,East,91,5.0,7.0,92,0.00,,,0.03,Wunderground v.1.15,2013-03-24 17:54:00,
2013-03-24 13:55:00,30.0,28.0,29.71,ESE,116,4.0,7.0,92,0.00,,,0.03,Wunderground v.1.15,2013-03-24 17:55:00,
2013-03-24 13:56:00,30.0,28.0,29.71,NE,49,2.0,7.0,92,0.00,,,0.03,Wunderground v.1.15,2013-03-24 17:56:00,
2013-03-24 13:58:00,30.0,27.7,29.71,ESE,104,1.0,7.0,91,0.00,,,0.03,Wunderground v.1.15,2013-03-24 17:58:00,
2013-03-24 13:59:00,30.0,28.0,29.71,NE,44,5.0,7.0,92,0.00,,,0.03,Wunderground v.1.15,2013-03-24 17:59:00,
2013-03-24 14:00:00,30.0,28.0,29.71,SE,126,3.0,5.0,92,0.00,,,0.03,Wunderground v.1.15,2013-03-24 18:00:00,
2013-03-24 14:01:00,30.0,28.0,29.71,East,82,3.0,8.0,92,0.00,,,0.03,Wunderground v.1.15,2013-03-24 18:01:00,
2013-03-24 14:03:00,30.1,28.1,29.70,ENE,67,3.0,8.0,92,0.00,,,0.03,Wunderground v.1.15,2013-03-24 18:03:00,
2013-03-24 14:04:00,30.1,28.1,29.70,ENE,61,8.0,8.0,92,0.00,,,0.03,Wunderground v.1.15,2013-03-24 18:04:00,
2013-03-24 14:05:00,30.1,28.1,29.70,East,94,3.0,8.0,92,0.00,,,0.03,Wunderground v.1.15,2013-03-24 18:05:00,
2013-03-24 14:07:00,30.2,28.2,29.70,East,88,0.0,8.0,92,0.00,,,0.03,Wunderground v.1.15,2013-03-24 18:07:00,
2013-03-24 14:09:00,30.2,28.2,29.69,NE,44,0.0,8.0,92,0.00,,,0.04,Wunderground v.1.15,2013-03-24 18:09:00,
2013-03-24 14:10:00,30.2,28.2,29.69,NE,49,3.0,3.0,92,0.00,,,0.04,Wunderground v.1.15,2013-03-24 18:10:00,
2013-03-24 14:11:00,30.2,28.2,29.69,ESE,115,2.0,3.0,92,0.00,,,0.04,Wunderground v.1.15,2013-03-24 18:11:00,
2013-03-24 14:12:00,30.2,28.2,29.69,North,5,5.0,5.0,92,0.00,,,0.04,Wunderground v.1.15,2013-03-24 18:12:00,
2013-03-24 14:14:00,30.2,28.2,29.69,NE,40,1.0,5.0,92,0.00,,,0.04,Wunderground v.1.15,2013-03-24 18:14:00,
2013-03-24 14:16:00,30.1,27.8,29.69,ENE,71,2.0,5.0,91,0.00,,,0.04,Wunderground v.1.15,2013-03-24 18:16:00,
2013-03-24 14:17:00,30.1,27.8,29.69,ENE,71,2.0,5.0,91,0.00,,,0.04,Wunderground v.1.15,2013-03-24 18:17:00,
2013-03-24 14:18:00,30.1,28.1,29.69,East,87,5.0,6.0,92,0.00,,,0.04,Wunderground v.1.15,2013-03-24 18:18:00,
2013-03-24 14:20:00,30.1,28.1,29.69,SE,130,2.0,5.0,92,0.00,,,0.04,Wunderground v.1.15,2013-03-24 18:20:00,
2013-03-24 14:21:00,30.0,28.0,29.69,East,84,2.0,5.0,92,0.00,,,0.04,Wunderground v.1.15,2013-03-24 18:21:00,
2013-03-24 14:22:00,30.0,28.0,29.69,NNW,347,0.0,5.0,92,0.00,,,0.04,Wunderground v.1.15,2013-03-24 18:22:00,
2013-03-24 14:23:00,30.0,28.0,29.69,NE,47,3.0,5.0,92,0.04,,,0.05,Wunderground v.1.15,2013-03-24 18:23:00,
2013-03-24 14:25:00,30.0,28.0,29.69,SE,126,3.0,5.0,92,0.04,,,0.05,Wunderground v.1.15,2013-03-24 18:25:00,
2013-03-24 14:28:00,29.9,27.9,29.69,ENE,67,0.0,5.0,92,0.04,,,0.05,Wunderground v.1.15,2013-03-24 18:28:00,
2013-03-24 14:31:00,29.9,27.6,29.69,ENE,78,0.0,2.0,91,0.04,,,0.05,Wunderground v.1.15,2013-03-24 18:31:00,
2013-03-24 14:32:00,29.9,27.6,29.69,East,87,0.0,2.0,91,0.04,,,0.05,Wunderground v.1.15,2013-03-24 18:32:00,
2013-03-24 14:34:00,29.9,27.6,29.69,NE,47,0.0,2.0,91,0.04,,,0.05,Wunderground v.1.15,2013-03-24 18:34:00,
2013-03-24 14:38:00,29.9,27.9,29.69,NE,37,0.0,2.0,92,0.04,,,0.05,Wunderground v.1.15,2013-03-24 18:38:00,
2013-03-24 14:39:00,29.9,27.9,29.69,NE,38,0.0,2.0,92,0.04,,,0.05,Wunderground v.1.15,2013-03-24 18:39:00,
2013-03-24 14:40:00,29.9,27.9,29.69,NNE,28,0.0,0.0,92,0.00,,,0.05,Wunderground v.1.15,2013-03-24 18:40:00,
2013-03-24 14:43:00,29.9,27.9,29.69,NE,53,0.0,0.0,92,0.00,,,0.05,Wunderground v.1.15,2013-03-24 18:43:00,
2013-03-24 14:44:00,29.9,27.9,29.69,North,5,0.0,0.0,92,0.00,,,0.05,Wunderground v.1.15,2013-03-24 18:44:00,
2013-03-24 14:45:00,29.9,27.9,29.69,NE,36,0.0,0.0,92,0.00,,,0.05,Wunderground v.1.15,2013-03-24 18:45:00,
2013-03-24 14:48:00,29.9,27.9,29.69,NNE,23,0.0,0.0,92,0.00,,,0.05,Wunderground v.1.15,2013-03-24 18:48:00,
2013-03-24 14:49:00,29.9,27.9,29.69,NE,44,0.0,0.0,92,0.00,,,0.05,Wunderground v.1.15,2013-03-24 18:49:00,
2013-03-24 14:51:00,29.9,27.9,29.69,NE,55,0.0,0.0,92,0.00,,,0.06,Wunderground v.1.15,2013-03-24 18:51:00,
2013-03-24 14:54:00,29.9,27.9,29.68,NE,38,0.0,0.0,92,0.00,,,0.06,Wunderground v.1.15,2013-03-24 18:54:00,
2013-03-24 14:55:00,29.9,27.9,29.69,ENE,65,0.0,0.0,92,0.00,,,0.06,Wunderground v.1.15,2013-03-24 18:55:00,
2013-03-24 14:57:00,29.8,27.8,29.69,NE,34,0.0,0.0,92,0.00,,,0.06,Wunderground v.1.15,2013-03-24 18:57:00,
2013-03-24 14:59:00,29.8,27.8,29.69,NNE,26,0.0,0.0,92,0.00,,,0.06,Wunderground v.1.15,2013-03-24 18:59:00,
2013-03-24 15:00:00,29.8,27.8,29.69,NNE,26,0.0,0.0,92,0.00,,,0.06,Wunderground v.1.15,2013-03-24 19:00:00,
2013-03-24 15:02:00,29.8,27.8,29.69,NNE,31,0.0,0.0,92,0.00,,,0.06,Wunderground v.1.15,2013-03-24 19:02:00,
2013-03-24 15:06:00,29.8,27.8,29.70,NNE,31,0.0,0.0,92,0.00,,,0.06,Wunderground v.1.15,2013-03-24 19:06:00,
2013-03-24 15:08:00,29.8,27.8,29.70,NNE,28,0.0,0.0,92,0.00,,,0.06,Wunderground v.1.15,2013-03-24 19:08:00,
2013-03-24 15:11:00,29.7,27.7,29.70,NNE,28,0.0,0.0,92,0.00,,,0.06,Wunderground v.1.15,2013-03-24 19:11:00,
2013-03-24 15:13:00,29.7,27.7,29.69,NNE,29,0.0,0.0,92,0.00,,,0.06,Wunderground v.1.15,2013-03-24 19:13:00,
2013-03-24 15:14:00,29.7,27.7,29.69,NNE,29,0.0,0.0,92,0.00,,,0.06,Wunderground v.1.15,2013-03-24 19:14:00,
2013-03-24 15:16:00,29.7,27.7,29.69,NNE,30,0.0,0.0,92,0.00,,,0.06,Wunderground v.1.15,2013-03-24 19:16:00,
2013-03-24 15:18:00,29.7,27.7,29.69,NNE,30,0.0,0.0,92,0.00,,,0.06,Wunderground v.1.15,2013-03-24 19:18:00,
2013-03-24 15:19:00,29.7,27.7,29.69,NNE,30,0.0,0.0,92,0.00,,,0.06,Wunderground v.1.15,2013-03-24 19:19:00,
2013-03-24 15:22:00,29.7,27.7,29.69,NE,49,0.0,0.0,92,0.00,,,0.06,Wunderground v.1.15,2013-03-24 19:22:00,
2013-03-24 15:23:00,29.7,27.7,29.69,NE,34,0.0,0.0,92,0.00,,,0.06,Wunderground v.1.15,2013-03-24 19:23:00,
2013-03-24 15:24:00,29.7,27.7,29.69,NNE,32,0.0,0.0,92,0.00,,,0.06,Wunderground v.1.15,2013-03-24 19:24:00,
2013-03-24 15:27:00,29.8,27.8,29.69,NNW,348,0.0,0.0,92,0.00,,,0.06,Wunderground v.1.15,2013-03-24 19:27:00,
2013-03-24 15:28:00,29.8,27.8,29.69,NNW,348,0.0,0.0,92,0.00,,,0.06,Wunderground v.1.15,2013-03-24 19:28:00,
2013-03-24 15:29:00,29.8,27.8,29.69,NNW,348,0.0,0.0,92,0.00,,,0.06,Wunderground v.1.15,2013-03-24 19:29:00,
2013-03-24 15:33:00,29.8,27.8,29.69,NE,51,0.0,0.0,92,0.00,,,0.06,Wunderground v.1.15,2013-03-24 19:33:00,
2013-03-24 15:34:00,29.8,27.8,29.68,East,92,0.0,0.0,92,0.00,,,0.06,Wunderground v.1.15,2013-03-24 19:34:00,
2013-03-24 15:38:00,29.8,27.8,29.68,NE,45,0.0,0.0,92,0.00,,,0.06,Wunderground v.1.15,2013-03-24 19:38:00,
2013-03-24 15:39:00,29.8,27.8,29.68,NNE,30,0.0,0.0,92,0.00,,,0.06,Wunderground v.1.15,2013-03-24 19:39:00,
2013-03-24 15:40:00,29.8,27.8,29.68,NE,35,0.0,0.0,92,0.00,,,0.06,Wunderground v.1.15,2013-03-24 19:40:00,
2013-03-24 15:43:00,29.7,27.7,29.68,ENE,68,0.0,0.0,92,0.00,,,0.06,Wunderground v.1.15,2013-03-24 19:43:00,
2013-03-24 15:44:00,29.7,27.7,29.68,ENE,66,0.0,0.0,92,0.00,,,0.06,Wunderground v.1.15,2013-03-24 19:44:00,
2013-03-24 15:45:00,29.7,27.7,29.68,ENE,76,0.0,0.0,92,0.00,,,0.06,Wunderground v.1.15,2013-03-24 19:45:00,
2013-03-24 15:49:00,29.7,27.7,29.67,East,80,0.0,0.0,92,0.00,,,0.06,Wunderground v.1.15,2013-03-24 19:49:00,
2013-03-24 15:50:00,29.7,27.7,29.67,NE,55,0.0,0.0,92,0.00,,,0.06,Wunderground v.1.15,2013-03-24 19:50:00,
2013-03-24 15:54:00,29.7,27.7,29.67,ENE,76,0.0,0.0,92,0.00,,,0.06,Wunderground v.1.15,2013-03-24 19:54:00,
2013-03-24 15:55:00,29.7,27.9,29.66,ENE,59,0.0,0.0,93,0.00,,,0.06,Wunderground v.1.15,2013-03-24 19:55:00,
2013-03-24 15:59:00,29.8,28.0,29.66,NE,56,0.0,0.0,93,0.00,,,0.06,Wunderground v.1.15,2013-03-24 19:59:00,
2013-03-24 16:00:00,29.8,28.0,29.66,NE,56,0.0,0.0,93,0.00,,,0.06,Wunderground v.1.15,2013-03-24 20:00:00,
2013-03-24 16:02:00,29.9,28.1,29.65,East,82,0.0,0.0,93,0.00,,,0.06,Wunderground v.1.15,2013-03-24 20:02:00,
2013-03-24 16:04:00,29.9,28.1,29.65,East,89,0.0,0.0,93,0.00,,,0.06,Wunderground v.1.15,2013-03-24 20:04:00,
2013-03-24 16:05:00,29.9,28.1,29.65,ENE,68,0.0,0.0,93,0.00,,,0.06,Wunderground v.1.15,2013-03-24 20:05:00,
2013-03-24 16:06:00,29.9,28.1,29.65,East,93,0.0,0.0,93,0.00,,,0.06,Wunderground v.1.15,2013-03-24 20:06:00,
2013-03-24 16:08:00,29.9,28.1,29.64,East,80,0.0,0.0,93,0.00,,,0.06,Wunderground v.1.15,2013-03-24 20:08:00,
2013-03-24 16:10:00,29.9,28.1,29.64,East,79,0.0,0.0,93,0.00,,,0.06,Wunderground v.1.15,2013-03-24 20:10:00,
2013-03-24 16:11:00,30.0,28.2,29.64,ESE,117,0.0,0.0,93,0.00,,,0.06,Wunderground v.1.15,2013-03-24 20:11:00,
2013-03-24 16:13:00,30.0,28.2,29.64,ENE,63,0.0,0.0,93,0.00,,,0.06,Wunderground v.1.15,2013-03-24 20:13:00,
2013-03-24 16:15:00,30.1,28.3,29.64,ESE,107,0.0,0.0,93,0.00,,,0.06,Wunderground v.1.15,2013-03-24 20:15:00,
2013-03-24 16:16:00,30.1,28.3,29.63,East,86,0.0,0.0,93,0.00,,,0.06,Wunderground v.1.15,2013-03-24 20:16:00,
2013-03-24 16:19:00,30.3,28.5,29.63,East,93,0.0,0.0,93,0.00,,,0.06,Wunderground v.1.15,2013-03-24 20:19:00,
2013-03-24 16:20:00,30.3,28.5,29.63,ESE,113,0.0,0.0,93,0.00,,,0.06,Wunderground v.1.15,2013-03-24 20:20:00,
2013-03-24 16:21:00,30.4,28.6,29.63,East,94,0.0,0.0,93,0.00,,,0.07,Wunderground v.1.15,2013-03-24 20:21:00,
2013-03-24 16:24:00,30.5,28.7,29.63,East,81,0.0,0.0,93,0.00,,,0.07,Wunderground v.1.15,2013-03-24 20:24:00,
2013-03-24 16:26:00,30.5,28.7,29.63,East,80,0.0,0.0,93,0.00,,,0.07,Wunderground v.1.15,2013-03-24 20:26:00,
2013-03-24 16:27:00,30.6,28.8,29.63,East,84,0.0,0.0,93,0.00,,,0.07,Wunderground v.1.15,2013-03-24 20:27:00,
2013-03-24 16:29:00,30.7,28.9,29.63,ENE,68,0.0,0.0,93,0.08,,,0.08,Wunderground v.1.15,2013-03-24 20:29:00,
2013-03-24 16:31:00,30.7,28.9,29.63,NE,44,0.0,0.0,93,0.08,,,0.08,Wunderground v.1.15,2013-03-24 20:31:00,
2013-03-24 16:32:00,30.7,28.9,29.63,NE,36,0.0,0.0,93,0.08,,,0.08,Wunderground v.1.15,2013-03-24 20:32:00,
2013-03-24 16:35:00,30.8,29.0,29.63,NE,43,0.0,0.0,93,0.14,,,0.09,Wunderground v.1.15,2013-03-24 20:35:00,
2013-03-24 16:36:00,30.9,29.1,29.63,NE,35,0.0,0.0,93,0.14,,,0.09,Wunderground v.1.15,2013-03-24 20:36:00,
2013-03-24 16:37:00,30.9,29.1,29.63,NNE,15,0.0,0.0,93,0.14,,,0.09,Wunderground v.1.15,2013-03-24 20:37:00,
2013-03-24 16:40:00,30.9,29.1,29.63,NE,47,0.0,0.0,93,0.10,,,0.10,Wunderground v.1.15,2013-03-24 20:40:00,
2013-03-24 16:42:00,31.0,29.2,29.63,NE,43,0.0,0.0,93,0.10,,,0.10,Wunderground v.1.15,2013-03-24 20:42:00,
2013-03-24 16:43:00,30.9,29.1,29.63,NE,44,0.0,0.0,93,0.10,,,0.10,Wunderground v.1.15,2013-03-24 20:43:00,
2013-03-24 16:45:00,31.0,29.2,29.62,NNE,29,0.0,0.0,93,0.10,,,0.10,Wunderground v.1.15,2013-03-24 20:45:00,
2013-03-24 16:47:00,31.0,29.2,29.63,NNE,30,0.0,0.0,93,0.08,,,0.11,Wunderground v.1.15,2013-03-24 20:47:00,
2013-03-24 16:48:00,31.0,29.2,29.62,NE,51,0.0,0.0,93,0.08,,,0.11,Wunderground v.1.15,2013-03-24 20:48:00,
2013-03-24 16:50:00,31.0,29.2,29.63,NE,37,0.0,0.0,93,0.08,,,0.11,Wunderground v.1.15,2013-03-24 20:50:00,
2013-03-24 16:52:00,31.1,29.3,29.63,NE,37,0.0,0.0,93,0.08,,,0.11,Wunderground v.1.15,2013-03-24 20:52:00,
2013-03-24 16:54:00,31.1,29.3,29.63,NE,37,0.0,0.0,93,0.08,,,0.11,Wunderground v.1.15,2013-03-24 20:54:00,
2013-03-24 16:55:00,31.2,29.4,29.63,East,88,0.0,0.0,93,0.07,,,0.11,Wunderground v.1.15,2013-03-24 20:55:00,
2013-03-24 16:58:00,31.2,29.4,29.63,East,96,0.0,0.0,93,0.05,,,0.11,Wunderground v.1.15,2013-03-24 20:58:00,
2013-03-24 16:59:00,31.3,29.5,29.63,ESE,103,0.0,0.0,93,0.05,,,0.11,Wunderground v.1.15,2013-03-24 20:59:00,
2013-03-24 17:02:00,31.3,29.5,29.63,SE,130,0.0,0.0,93,0.05,,,0.12,Wunderground v.1.15,2013-03-24 21:02:00,
2013-03-24 17:03:00,31.3,29.5,29.63,ENE,78,0.0,0.0,93,0.05,,,0.12,Wunderground v.1.15,2013-03-24 21:03:00,
2013-03-24 17:04:00,31.4,29.6,29.63,East,79,0.0,0.0,93,0.05,,,0.12,Wunderground v.1.15,2013-03-24 21:04:00,
2013-03-24 17:07:00,31.5,29.7,29.62,East,82,0.0,0.0,93,0.05,,,0.12,Wunderground v.1.15,2013-03-24 21:07:00,
2013-03-24 17:09:00,31.5,29.7,29.62,East,91,0.0,0.0,93,0.05,,,0.12,Wunderground v.1.15,2013-03-24 21:09:00,
2013-03-24 17:12:00,31.5,29.7,29.62,ENE,61,0.0,0.0,93,0.05,,,0.12,Wunderground v.1.15,2013-03-24 21:12:00,
2013-03-24 17:14:00,31.5,29.7,29.62,East,94,0.0,0.0,93,0.04,,,0.12,Wunderground v.1.15,2013-03-24 21:14:00,
2013-03-24 17:15:00,31.5,29.7,29.62,SE,141,0.0,0.0,93,0.04,,,0.12,Wunderground v.1.15,2013-03-24 21:15:00,
2013-03-24 17:18:00,31.5,29.7,29.62,ENE,75,0.0,0.0,93,0.00,,,0.12,Wunderground v.1.15,2013-03-24 21:18:00,
2013-03-24 17:19:00,31.5,29.7,29.62,ESE,119,0.0,0.0,93,0.00,,,0.13,Wunderground v.1.15,2013-03-24 21:19:00,
2013-03-24 17:20:00,31.5,29.7,29.62,East,91,0.0,0.0,93,0.00,,,0.13,Wunderground v.1.15,2013-03-24 21:20:00,
2013-03-24 17:23:00,31.5,29.7,29.62,ENE,61,0.0,0.0,93,0.00,,,0.13,Wunderground v.1.15,2013-03-24 21:23:00,
2013-03-24 17:24:00,31.5,29.7,29.62,ESE,109,0.0,0.0,93,0.00,,,0.13,Wunderground v.1.15,2013-03-24 21:24:00,
2013-03-24 17:25:00,31.5,29.7,29.62,East,95,0.0,0.0,93,0.00,,,0.13,Wunderground v.1.15,2013-03-24 21:25:00,
2013-03-24 17:28:00,31.5,29.7,29.61,ENE,78,0.0,0.0,93,0.00,,,0.13,Wunderground v.1.15,2013-03-24 21:28:00,
2013-03-24 17:30:00,31.5,29.7,29.61,East,97,0.0,0.0,93,0.00,,,0.13,Wunderground v.1.15,2013-03-24 21:30:00,
2013-03-24 17:33:00,31.6,29.8,29.61,ESE,103,0.0,0.0,93,0.00,,,0.13,Wunderground v.1.15,2013-03-24 21:33:00,
2013-03-24 17:35:00,31.6,29.8,29.61,ENE,77,0.0,0.0,93,0.00,,,0.13,Wunderground v.1.15,2013-03-24 21:35:00,
2013-03-24 17:36:00,31.6,29.8,29.61,SSE,151,0.0,0.0,93,0.00,,,0.13,Wunderground v.1.15,2013-03-24 21:36:00,
2013-03-24 17:39:00,31.5,29.7,29.61,ENE,63,0.0,0.0,93,0.00,,,0.13,Wunderground v.1.15,2013-03-24 21:39:00,
2013-03-24 17:40:00,31.5,29.7,29.61,ESE,107,0.0,0.0,93,0.00,,,0.13,Wunderground v.1.15,2013-03-24 21:40:00,
2013-03-24 17:41:00,31.5,29.7,29.61,ENE,69,0.0,0.0,93,0.00,,,0.13,Wunderground v.1.15,2013-03-24 21:41:00,
2013-03-24 17:44:00,31.5,29.7,29.61,ENE,77,0.0,0.0,93,0.00,,,0.13,Wunderground v.1.15,2013-03-24 21:44:00,
2013-03-24 17:45:00,31.5,29.7,29.61,NE,55,0.0,0.0,93,0.00,,,0.13,Wunderground v.1.15,2013-03-24 21:45:00,
2013-03-24 17:46:00,31.5,29.7,29.61,ENE,59,0.0,0.0,93,0.00,,,0.13,Wunderground v.1.15,2013-03-24 21:46:00,
2013-03-24 17:47:00,31.5,29.7,29.61,ESE,121,0.0,0.0,93,0.00,,,0.14,Wunderground v.1.15,2013-03-24 21:47:00,
2013-03-24 17:50:00,31.3,29.5,29.60,ENE,70,0.0,0.0,93,0.00,,,0.14,Wunderground v.1.15,2013-03-24 21:50:00,
2013-03-24 17:51:00,31.3,29.5,29.60,ENE,72,0.0,0.0,93,0.00,,,0.14,Wunderground v.1.15,2013-03-24 21:51:00,
2013-03-24 17:52:00,31.2,29.4,29.60,ESE,113,0.0,0.0,93,0.00,,,0.14,Wunderground v.1.15,2013-03-24 21:52:00,
2013-03-24 17:56:00,30.8,28.8,29.60,ESE,123,0.0,0.0,92,0.00,,,0.14,Wunderground v.1.15,2013-03-24 21:56:00,
2013-03-24 17:57:00,30.7,28.7,29.60,NE,40,0.0,0.0,92,0.00,,,0.14,Wunderground v.1.15,2013-03-24 21:57:00,
2013-03-24 18:01:00,30.5,28.5,29.60,ENE,69,0.0,0.0,92,0.00,,,0.14,Wunderground v.1.15,2013-03-24 22:01:00,
2013-03-24 18:02:00,30.4,28.4,29.60,ENE,74,0.0,0.0,92,0.00,,,0.14,Wunderground v.1.15,2013-03-24 22:02:00,
2013-03-24 18:03:00,30.3,28.3,29.60,ENE,65,0.0,0.0,92,0.00,,,0.14,Wunderground v.1.15,2013-03-24 22:03:00,
2013-03-24 18:07:00,30.2,28.4,29.60,South,176,0.0,0.0,93,0.00,,,0.14,Wunderground v.1.15,2013-03-24 22:07:00,
2013-03-24 18:09:00,30.1,28.3,29.59,NE,38,0.0,0.0,93,0.00,,,0.14,Wunderground v.1.15,2013-03-24 22:09:00,
2013-03-24 18:12:00,29.9,28.1,29.59,ENE,58,0.0,0.0,93,0.00,,,0.14,Wunderground v.1.15,2013-03-24 22:12:00,
2013-03-24 18:14:00,29.8,28.0,29.59,ENE,70,0.0,0.0,93,0.00,,,0.14,Wunderground v.1.15,2013-03-24 22:14:00,
2013-03-24 18:15:00,29.8,28.0,29.59,East,85,0.0,0.0,93,0.00,,,0.14,Wunderground v.1.15,2013-03-24 22:15:00,
2013-03-24 18:18:00,29.7,27.9,29.59,East,99,0.0,0.0,93,0.00,,,0.14,Wunderground v.1.15,2013-03-24 22:18:00,
2013-03-24 18:19:00,29.6,27.8,29.59,ESE,103,0.0,0.0,93,0.00,,,0.14,Wunderground v.1.15,2013-03-24 22:19:00,
2013-03-24 18:20:00,29.6,27.8,29.59,East,95,0.0,0.0,93,0.00,,,0.14,Wunderground v.1.15,2013-03-24 22:20:00,
2013-03-24 18:21:00,29.5,27.7,29.60,ENE,65,0.0,0.0,93,0.00,,,0.14,Wunderground v.1.15,2013-03-24 22:21:00,
2013-03-24 18:23:00,29.5,27.7,29.60,ENE,76,0.0,0.0,93,0.00,,,0.14,Wunderground v.1.15,2013-03-24 22:23:00,
2013-03-24 18:25:00,29.4,27.6,29.60,East,100,0.0,0.0,93,0.00,,,0.14,Wunderground v.1.15,2013-03-24 22:25:00,
2013-03-24 18:26:00,29.4,27.6,29.60,ENE,63,0.0,0.0,93,0.00,,,0.14,Wunderground v.1.15,2013-03-24 22:26:00,
2013-03-24 18:28:00,29.3,27.5,29.60,ENE,73,0.0,0.0,93,0.00,,,0.14,Wunderground v.1.15,2013-03-24 22:28:00,
2013-03-24 18:31:00,29.3,27.5,29.60,ENE,71,0.0,0.0,93,0.00,,,0.14,Wunderground v.1.15,2013-03-24 22:31:00,
2013-03-24 18:32:00,29.2,27.4,29.60,East,101,0.0,0.0,93,0.00,,,0.14,Wunderground v.1.15,2013-03-24 22:32:00,
2013-03-24 18:34:00,29.2,27.4,29.60,ENE,64,0.0,0.0,93,0.00,,,0.14,Wunderground v.1.15,2013-03-24 22:34:00,
2013-03-24 18:37:00,29.2,27.4,29.60,ENE,71,0.0,0.0,93,0.00,,,0.14,Wunderground v.1.15,2013-03-24 22:37:00,
2013-03-24 18:40:00,29.2,27.4,29.60,East,92,0.0,0.0,93,0.00,,,0.14,Wunderground v.1.15,2013-03-24 22:40:00,
2013-03-24 18:42:00,29.2,27.4,29.60,East,88,0.0,0.0,93,0.00,,,0.14,Wunderground v.1.15,2013-03-24 22:42:00,
2013-03-24 18:43:00,29.2,27.4,29.60,ENE,73,0.0,0.0,93,0.00,,,0.14,Wunderground v.1.15,2013-03-24 22:43:00,
2013-03-24 18:46:00,29.2,27.4,29.60,ESE,121,0.0,0.0,93,0.00,,,0.14,Wunderground v.1.15,2013-03-24 22:46:00,
2013-03-24 18:48:00,29.2,27.4,29.60,ESE,111,0.0,0.0,93,0.00,,,0.14,Wunderground v.1.15,2013-03-24 22:48:00,
2013-03-24 18:49:00,29.2,27.4,29.59,SE,124,0.0,0.0,93,0.00,,,0.14,Wunderground v.1.15,2013-03-24 22:49:00,
2013-03-24 18:51:00,29.2,27.4,29.59,East,98,0.0,0.0,93,0.00,,,0.14,Wunderground v.1.15,2013-03-24 22:51:00,
2013-03-24 18:53:00,29.2,27.4,29.59,East,94,0.0,0.0,93,0.00,,,0.14,Wunderground v.1.15,2013-03-24 22:53:00,
2013-03-24 18:54:00,29.2,27.7,29.58,East,86,0.0,0.0,94,0.00,,,0.14,Wunderground v.1.15,2013-03-24 22:54:00,
2013-03-24 18:57:00,29.2,27.7,29.57,ENE,67,0.0,0.0,94,0.00,,,0.14,Wunderground v.1.15,2013-03-24 22:57:00,
2013-03-24 18:58:00,29.2,27.7,29.58,East,94,0.0,0.0,94,0.00,,,0.14,Wunderground v.1.15,2013-03-24 22:58:00,
2013-03-24 18:59:00,29.2,27.7,29.58,ESE,117,0.0,0.0,94,0.00,,,0.14,Wunderground v.1.15,2013-03-24 22:59:00,
2013-03-24 19:02:00,29.2,27.7,29.58,ESE,104,0.0,0.0,94,0.00,,,0.14,Wunderground v.1.15,2013-03-24 23:02:00,
2013-03-24 19:03:00,29.2,27.7,29.59,NNE,22,0.0,0.0,94,0.00,,,0.14,Wunderground v.1.15,2013-03-24 23:03:00,
2013-03-24 19:04:00,29.2,27.7,29.59,NNE,22,0.0,0.0,94,0.00,,,0.14,Wunderground v.1.15,2013-03-24 23:04:00,
2013-03-24 19:05:00,29.2,27.7,29.59,SSE,154,0.0,0.0,94,0.00,,,0.14,Wunderground v.1.15,2013-03-24 23:05:00,
2013-03-24 19:08:00,29.2,27.7,29.60,East,86,0.0,0.0,94,0.00,,,0.14,Wunderground v.1.15,2013-03-24 23:08:00,
2013-03-24 19:10:00,29.1,27.6,29.60,SE,128,0.0,0.0,94,0.00,,,0.14,Wunderground v.1.15,2013-03-24 23:10:00,
2013-03-24 19:11:00,29.2,27.7,29.60,SSE,159,0.0,0.0,94,0.00,,,0.14,Wunderground v.1.15,2013-03-24 23:11:00,
2013-03-24 19:12:00,29.2,27.7,29.60,SSE,157,0.0,0.0,94,0.00,,,0.14,Wunderground v.1.15,2013-03-24 23:12:00,
2013-03-24 19:13:00,29.2,27.7,29.61,East,82,0.0,0.0,94,0.00,,,0.14,Wunderground v.1.15,2013-03-24 23:13:00,
2013-03-24 19:15:00,29.2,27.7,29.60,East,100,0.0,0.0,94,0.00,,,0.14,Wunderground v.1.15,2013-03-24 23:15:00,
2013-03-24 19:16:00,29.2,27.7,29.61,East,82,0.0,0.0,94,0.00,,,0.14,Wunderground v.1.15,2013-03-24 23:16:00,
2013-03-24 19:17:00,29.2,27.7,29.61,East,82,0.0,0.0,94,0.00,,,0.14,Wunderground v.1.15,2013-03-24 23:17:00,
2013-03-24 19:18:00,29.1,27.6,29.61,ESE,103,0.0,0.0,94,0.00,,,0.14,Wunderground v.1.15,2013-03-24 23:18:00,
2013-03-24 19:20:00,29.0,27.5,29.61,ENE,57,0.0,0.0,94,0.00,,,0.14,Wunderground v.1.15,2013-03-24 23:20:00,
2013-03-24 19:21:00,29.0,27.5,29.61,ENE,72,0.0,0.0,94,0.00,,,0.14,Wunderground v.1.15,2013-03-24 23:21:00,
2013-03-24 19:24:00,28.9,27.4,29.61,ESE,114,0.0,0.0,94,0.00,,,0.14,Wunderground v.1.15,2013-03-24 23:24:00,
2013-03-24 19:25:00,28.8,27.3,29.61,ENE,71,0.0,0.0,94,0.00,,,0.14,Wunderground v.1.15,2013-03-24 23:25:00,
2013-03-24 19:27:00,28.8,27.3,29.61,ENE,76,0.0,0.0,94,0.00,,,0.14,Wunderground v.1.15,2013-03-24 23:27:00,
2013-03-24 19:29:00,28.8,27.3,29.61,East,83,0.0,0.0,94,0.00,,,0.14,Wunderground v.1.15,2013-03-24 23:29:00,
2013-03-24 19:30:00,28.7,27.2,29.61,East,85,0.0,0.0,94,0.00,,,0.15,Wunderground v.1.15,2013-03-24 23:30:00,
2013-03-24 19:33:00,28.7,27.2,29.61,NNE,32,0.0,0.0,94,0.00,,,0.15,Wunderground v.1.15,2013-03-24 23:33:00,
2013-03-24 19:34:00,28.7,27.2,29.62,NE,36,0.0,0.0,94,0.00,,,0.15,Wunderground v.1.15,2013-03-24 23:34:00,
2013-03-24 19:35:00,28.6,27.1,29.62,East,93,0.0,0.0,94,0.00,,,0.15,Wunderground v.1.15,2013-03-24 23:35:00,
2013-03-24 19:38:00,28.6,27.1,29.62,ENE,71,0.0,0.0,94,0.00,,,0.15,Wunderground v.1.15,2013-03-24 23:38:00,
2013-03-24 19:39:00,28.6,27.1,29.62,ENE,73,0.0,0.0,94,0.00,,,0.15,Wunderground v.1.15,2013-03-24 23:39:00,
2013-03-24 19:40:00,28.6,27.1,29.62,ENE,76,0.0,0.0,94,0.00,,,0.15,Wunderground v.1.15,2013-03-24 23:40:00,
2013-03-24 19:42:00,28.6,27.1,29.63,ESE,108,0.0,0.0,94,0.00,,,0.15,Wunderground v.1.15,2013-03-24 23:42:00,
2013-03-24 19:43:00,28.6,27.1,29.63,East,89,0.0,0.0,94,0.00,,,0.15,Wunderground v.1.15,2013-03-24 23:43:00,
2013-03-24 19:45:00,28.6,27.1,29.63,East,82,0.0,0.0,94,0.00,,,0.15,Wunderground v.1.15,2013-03-24 23:45:00,
2013-03-24 19:47:00,28.6,27.1,29.63,East,96,0.0,0.0,94,0.00,,,0.15,Wunderground v.1.15,2013-03-24 23:47:00,
2013-03-24 19:48:00,28.7,27.2,29.62,ENE,74,0.0,0.0,94,0.00,,,0.15,Wunderground v.1.15,2013-03-24 23:48:00,
2013-03-24 19:50:00,28.7,27.2,29.62,SSE,154,0.0,0.0,94,0.00,,,0.15,Wunderground v.1.15,2013-03-24 23:50:00,
2013-03-24 19:52:00,28.7,27.2,29.62,ENE,78,0.0,0.0,94,0.00,,,0.15,Wunderground v.1.15,2013-03-24 23:52:00,
2013-03-24 19:53:00,28.7,27.2,29.62,ENE,60,0.0,0.0,94,0.00,,,0.15,Wunderground v.1.15,2013-03-24 23:53:00,
2013-03-24 19:55:00,28.7,27.2,29.63,SSE,151,0.0,0.0,94,0.00,,,0.15,Wunderground v.1.15,2013-03-24 23:55:00,
2013-03-24 19:56:00,28.7,27.2,29.63,SE,144,0.0,0.0,94,0.00,,,0.15,Wunderground v.1.15,2013-03-24 23:56:00,
2013-03-24 19:57:00,28.7,27.2,29.63,East,79,0.0,0.0,94,0.00,,,0.15,Wunderground v.1.15,2013-03-24 23:57:00,
2013-03-24 19:58:00,28.6,27.1,29.63,ENE,67,0.0,0.0,94,0.00,,,0.15,Wunderground v.1.15,2013-03-24 23:58:00,
2013-03-24 20:00:00,28.6,27.1,29.63,East,94,0.0,0.0,94,0.00,,,0.15,Wunderground v.1.15,2013-03-25 00:00:00,
2013-03-24 20:02:00,28.6,27.1,29.63,East,83,0.0,0.0,94,0.00,,,0.15,Wunderground v.1.15,2013-03-25 00:02:00,
2013-03-24 20:03:00,28.6,27.1,29.63,East,83,0.0,0.0,94,0.00,,,0.15,Wunderground v.1.15,2013-03-25 00:03:00,
2013-03-24 20:06:00,28.6,27.1,29.63,East,83,0.0,0.0,94,0.00,,,0.15,Wunderground v.1.15,2013-03-25 00:06:00,
2013-03-24 20:07:00,28.5,27.0,29.64,East,83,0.0,0.0,94,0.00,,,0.15,Wunderground v.1.15,2013-03-25 00:07:00,
2013-03-24 20:09:00,28.5,27.0,29.64,East,82,0.0,0.0,94,0.00,,,0.15,Wunderground v.1.15,2013-03-25 00:09:00,
2013-03-24 20:12:00,28.6,27.1,29.63,East,82,0.0,0.0,94,0.00,,,0.15,Wunderground v.1.15,2013-03-25 00:12:00,
2013-03-24 20:14:00,28.5,27.0,29.63,ESE,103,0.0,0.0,94,0.00,,,0.15,Wunderground v.1.15,2013-03-25 00:14:00,
2013-03-24 20:17:00,28.5,27.0,29.63,ESE,107,0.0,0.0,94,0.00,,,0.15,Wunderground v.1.15,2013-03-25 00:17:00,
2013-03-24 20:18:00,28.5,27.0,29.63,ESE,120,0.0,0.0,94,0.00,,,0.15,Wunderground v.1.15,2013-03-25 00:18:00,
2013-03-24 20:19:00,28.5,27.0,29.63,ESE,105,0.0,0.0,94,0.00,,,0.15,Wunderground v.1.15,2013-03-25 00:19:00,
2013-03-24 20:22:00,28.4,26.9,29.64,ESE,106,0.0,0.0,94,0.00,,,0.15,Wunderground v.1.15,2013-03-25 00:22:00,
2013-03-24 20:23:00,28.4,26.9,29.64,ESE,112,0.0,0.0,94,0.00,,,0.15,Wunderground v.1.15,2013-03-25 00:23:00,
2013-03-24 20:24:00,28.4,26.9,29.64,ENE,78,0.0,0.0,94,0.00,,,0.15,Wunderground v.1.15,2013-03-25 00:24:00,
2013-03-24 20:28:00,28.4,26.9,29.64,ESE,122,0.0,0.0,94,0.00,,,0.15,Wunderground v.1.15,2013-03-25 00:28:00,
2013-03-24 20:30:00,28.4,26.9,29.64,ESE,122,0.0,0.0,94,0.00,,,0.15,Wunderground v.1.15,2013-03-25 00:30:00,
2013-03-24 20:33:00,28.3,26.8,29.64,East,82,0.0,0.0,94,0.00,,,0.15,Wunderground v.1.15,2013-03-25 00:33:00,
2013-03-24 20:34:00,28.3,26.8,29.64,East,84,0.0,0.0,94,0.00,,,0.15,Wunderground v.1.15,2013-03-25 00:34:00,
2013-03-24 20:35:00,28.3,26.8,29.64,NE,42,0.0,0.0,94,0.00,,,0.15,Wunderground v.1.15,2013-03-25 00:35:00,
2013-03-24 20:36:00,28.3,26.8,29.64,East,86,0.0,0.0,94,0.00,,,0.15,Wunderground v.1.15,2013-03-25 00:36:00,
2013-03-24 20:39:00,28.3,26.8,29.64,East,84,0.0,0.0,94,0.00,,,0.15,Wunderground v.1.15,2013-03-25 00:39:00,
2013-03-24 20:40:00,28.3,26.8,29.64,ESE,117,0.0,0.0,94,0.00,,,0.15,Wunderground v.1.15,2013-03-25 00:40:00,
2013-03-24 20:42:00,28.3,26.8,29.64,East,88,0.0,0.0,94,0.00,,,0.15,Wunderground v.1.15,2013-03-25 00:42:00,
2013-03-24 20:44:00,28.3,26.8,29.64,ESE,117,0.0,0.0,94,0.00,,,0.15,Wunderground v.1.15,2013-03-25 00:44:00,
2013-03-24 20:45:00,28.3,26.8,29.64,East,92,0.0,0.0,94,0.00,,,0.15,Wunderground v.1.15,2013-03-25 00:45:00,
2013-03-24 20:47:00,28.2,26.7,29.64,ESE,105,0.0,0.0,94,0.00,,,0.15,Wunderground v.1.15,2013-03-25 00:47:00,
2013-03-24 20:49:00,28.3,26.8,29.64,NE,49,0.0,0.0,94,0.00,,,0.15,Wunderground v.1.15,2013-03-25 00:49:00,
2013-03-24 20:50:00,28.3,26.8,29.63,ENE,65,0.0,0.0,94,0.00,,,0.15,Wunderground v.1.15,2013-03-25 00:50:00,
2013-03-24 20:52:00,28.3,26.8,29.63,East,101,0.0,0.0,94,0.00,,,0.15,Wunderground v.1.15,2013-03-25 00:52:00,
2013-03-24 20:54:00,28.3,26.8,29.64,ENE,69,0.0,0.0,94,0.00,,,0.15,Wunderground v.1.15,2013-03-25 00:54:00,
2013-03-24 20:55:00,28.3,26.8,29.64,ENE,69,0.0,0.0,94,0.00,,,0.15,Wunderground v.1.15,2013-03-25 00:55:00,
2013-03-24 20:56:00,28.3,26.8,29.64,ESE,120,0.0,0.0,94,0.00,,,0.15,Wunderground v.1.15,2013-03-25 00:56:00,
2013-03-24 20:58:00,28.4,26.9,29.64,SE,141,0.0,0.0,94,0.00,,,0.15,Wunderground v.1.15,2013-03-25 00:58:00,
2013-03-24 21:00:00,28.4,26.9,29.64,East,90,0.0,0.0,94,0.00,,,0.15,Wunderground v.1.15,2013-03-25 01:00:00,
2013-03-24 21:02:00,28.3,26.8,29.64,ESE,111,0.0,0.0,94,0.00,,,0.15,Wunderground v.1.15,2013-03-25 01:02:00,
2013-03-24 21:03:00,28.3,26.8,29.64,ENE,59,0.0,0.0,94,0.00,,,0.15,Wunderground v.1.15,2013-03-25 01:03:00,
2013-03-24 21:05:00,28.3,26.8,29.63,NNW,348,0.0,0.0,94,0.00,,,0.15,Wunderground v.1.15,2013-03-25 01:05:00,
2013-03-24 21:07:00,28.3,26.8,29.63,ENE,69,0.0,0.0,94,0.00,,,0.15,Wunderground v.1.15,2013-03-25 01:07:00,
2013-03-24 21:08:00,28.3,26.8,29.63,ENE,69,0.0,0.0,94,0.00,,,0.15,Wunderground v.1.15,2013-03-25 01:08:00,
2013-03-24 21:10:00,28.2,26.7,29.63,ENE,74,0.0,0.0,94,0.00,,,0.15,Wunderground v.1.15,2013-03-25 01:10:00,
2013-03-24 21:12:00,28.2,26.7,29.63,ENE,68,0.0,0.0,94,0.00,,,0.15,Wunderground v.1.15,2013-03-25 01:12:00,
2013-03-24 21:13:00,28.2,26.7,29.63,ENE,71,0.0,0.0,94,0.00,,,0.15,Wunderground v.1.15,2013-03-25 01:13:00,
2013-03-24 21:15:00,28.2,26.7,29.63,East,92,0.0,0.0,94,0.00,,,0.15,Wunderground v.1.15,2013-03-25 01:15:00,
2013-03-24 21:18:00,28.2,26.7,29.64,ENE,78,0.0,0.0,94,0.00,,,0.15,Wunderground v.1.15,2013-03-25 01:18:00,
2013-03-24 21:21:00,28.2,26.7,29.63,ENE,74,0.0,0.0,94,0.00,,,0.15,Wunderground v.1.15,2013-03-25 01:21:00,
2013-03-24 21:23:00,28.2,26.7,29.63,ESE,103,0.0,0.0,94,0.00,,,0.15,Wunderground v.1.15,2013-03-25 01:23:00,
2013-03-24 21:24:00,28.2,26.7,29.63,ENE,66,0.0,0.0,94,0.00,,,0.15,Wunderground v.1.15,2013-03-25 01:24:00,
2013-03-24 21:26:00,28.2,26.7,29.63,East,95,0.0,0.0,94,0.00,,,0.15,Wunderground v.1.15,2013-03-25 01:26:00,
2013-03-24 21:28:00,28.2,26.7,29.63,East,93,0.0,0.0,94,0.00,,,0.15,Wunderground v.1.15,2013-03-25 01:28:00,
2013-03-24 21:29:00,28.2,26.7,29.63,East,89,0.0,0.0,94,0.00,,,0.15,Wunderground v.1.15,2013-03-25 01:29:00,
2013-03-24 21:31:00,28.1,26.6,29.63,East,89,0.0,0.0,94,0.00,,,0.15,Wunderground v.1.15,2013-03-25 01:31:00,
2013-03-24 21:33:00,28.1,26.6,29.63,East,97,0.0,0.0,94,0.00,,,0.15,Wunderground v.1.15,2013-03-25 01:33:00,
2013-03-24 21:34:00,28.1,26.6,29.63,ESE,118,0.0,0.0,94,0.00,,,0.15,Wunderground v.1.15,2013-03-25 01:34:00,
2013-03-24 21:37:00,28.1,26.6,29.63,East,80,0.0,0.0,94,0.00,,,0.15,Wunderground v.1.15,2013-03-25 01:37:00,
2013-03-24 21:38:00,28.1,26.6,29.63,East,80,0.0,0.0,94,0.00,,,0.15,Wunderground v.1.15,2013-03-25 01:38:00,
2013-03-24 21:39:00,28.1,26.6,29.63,ESE,118,0.0,0.0,94,0.00,,,0.15,Wunderground v.1.15,2013-03-25 01:39:00,
2013-03-24 21:40:00,28.1,26.6,29.63,ESE,107,0.0,0.0,94,0.00,,,0.15,Wunderground v.1.15,2013-03-25 01:40:00,
2013-03-24 21:42:00,28.1,26.6,29.63,SE,125,0.0,0.0,94,0.00,,,0.15,Wunderground v.1.15,2013-03-25 01:42:00,
2013-03-24 21:44:00,28.1,26.6,29.63,East,82,0.0,0.0,94,0.00,,,0.15,Wunderground v.1.15,2013-03-25 01:44:00,
2013-03-24 21:45:00,28.1,26.6,29.63,ENE,67,0.0,0.0,94,0.00,,,0.15,Wunderground v.1.15,2013-03-25 01:45:00,
2013-03-24 21:47:00,28.0,26.5,29.63,East,83,0.0,0.0,94,0.00,,,0.15,Wunderground v.1.15,2013-03-25 01:47:00,
2013-03-24 21:49:00,28.0,26.5,29.63,SE,140,0.0,0.0,94,0.00,,,0.15,Wunderground v.1.15,2013-03-25 01:49:00,
2013-03-24 21:50:00,28.0,26.5,29.63,South,182,0.0,0.0,94,0.00,,,0.15,Wunderground v.1.15,2013-03-25 01:50:00,
2013-03-24 21:52:00,28.0,26.5,29.63,SE,130,0.0,0.0,94,0.00,,,0.15,Wunderground v.1.15,2013-03-25 01:52:00,
2013-03-24 21:54:00,28.0,26.5,29.63,East,86,0.0,0.0,94,0.00,,,0.15,Wunderground v.1.15,2013-03-25 01:54:00,
2013-03-24 21:56:00,28.0,26.5,29.62,East,88,0.0,0.0,94,0.00,,,0.15,Wunderground v.1.15,2013-03-25 01:56:00,
2013-03-24 21:58:00,28.0,26.5,29.62,ESE,119,0.0,0.0,94,0.00,,,0.15,Wunderground v.1.15,2013-03-25 01:58:00,
2013-03-24 21:59:00,28.0,26.5,29.61,NE,55,0.0,0.0,94,0.00,,,0.15,Wunderground v.1.15,2013-03-25 01:59:00,
2013-03-24 22:00:00,28.0,26.5,29.61,East,94,0.0,0.0,94,0.00,,,0.15,Wunderground v.1.15,2013-03-25 02:00:00,
2013-03-24 22:01:00,28.0,26.5,29.61,SE,142,0.0,0.0,94,0.00,,,0.15,Wunderground v.1.15,2013-03-25 02:01:00,
2013-03-24 22:03:00,28.0,26.5,29.61,ENE,74,0.0,0.0,94,0.00,,,0.15,Wunderground v.1.15,2013-03-25 02:03:00,
2013-03-24 22:05:00,27.9,26.4,29.61,East,100,0.0,0.0,94,0.00,,,0.15,Wunderground v.1.15,2013-03-25 02:05:00,
2013-03-24 22:06:00,27.9,26.4,29.60,ENE,61,0.0,0.0,94,0.00,,,0.15,Wunderground v.1.15,2013-03-25 02:06:00,
2013-03-24 22:08:00,27.9,26.4,29.60,NE,54,0.0,0.0,94,0.00,,,0.15,Wunderground v.1.15,2013-03-25 02:08:00,
2013-03-24 22:10:00,27.9,26.4,29.60,ESE,107,0.0,0.0,94,0.00,,,0.15,Wunderground v.1.15,2013-03-25 02:10:00,
2013-03-24 22:11:00,27.8,26.3,29.60,ESE,109,0.0,0.0,94,0.00,,,0.15,Wunderground v.1.15,2013-03-25 02:11:00,
2013-03-24 22:14:00,27.8,26.3,29.60,ENE,75,0.0,0.0,94,0.00,,,0.15,Wunderground v.1.15,2013-03-25 02:14:00,
2013-03-24 22:16:00,27.8,26.3,29.60,ENE,77,0.0,0.0,94,0.00,,,0.15,Wunderground v.1.15,2013-03-25 02:16:00,
2013-03-24 22:17:00,27.8,26.3,29.60,ENE,78,0.0,0.0,94,0.00,,,0.15,Wunderground v.1.15,2013-03-25 02:17:00,
2013-03-24 22:19:00,27.7,26.2,29.60,ESE,119,0.0,0.0,94,0.00,,,0.15,Wunderground v.1.15,2013-03-25 02:19:00,
2013-03-24 22:21:00,27.7,26.2,29.60,SE,136,0.0,0.0,94,0.00,,,0.15,Wunderground v.1.15,2013-03-25 02:21:00,
2013-03-24 22:22:00,27.6,26.1,29.59,East,96,0.0,0.0,94,0.00,,,0.15,Wunderground v.1.15,2013-03-25 02:22:00,
2013-03-24 22:23:00,27.6,26.1,29.59,ESE,103,0.0,0.0,94,0.00,,,0.15,Wunderground v.1.15,2013-03-25 02:23:00,
2013-03-24 22:26:00,27.6,26.1,29.59,SE,142,0.0,0.0,94,0.00,,,0.15,Wunderground v.1.15,2013-03-25 02:26:00,
2013-03-24 22:27:00,27.6,26.1,29.59,NE,53,0.0,0.0,94,0.00,,,0.15,Wunderground v.1.15,2013-03-25 02:27:00,
2013-03-24 22:28:00,27.6,26.1,29.59,East,101,0.0,0.0,94,0.00,,,0.15,Wunderground v.1.15,2013-03-25 02:28:00,
2013-03-24 22:31:00,27.6,26.1,29.59,South,175,0.0,0.0,94,0.00,,,0.15,Wunderground v.1.15,2013-03-25 02:31:00,
2013-03-24 22:32:00,27.5,26.0,29.60,ESE,109,0.0,0.0,94,0.00,,,0.15,Wunderground v.1.15,2013-03-25 02:32:00,
2013-03-24 22:33:00,27.5,26.0,29.60,ENE,76,0.0,0.0,94,0.00,,,0.15,Wunderground v.1.15,2013-03-25 02:33:00,
2013-03-24 22:37:00,27.5,26.0,29.59,ENE,71,0.0,0.0,94,0.00,,,0.15,Wunderground v.1.15,2013-03-25 02:37:00,
2013-03-24 22:38:00,27.5,26.0,29.59,ESE,121,0.0,0.0,94,0.00,,,0.15,Wunderground v.1.15,2013-03-25 02:38:00,
2013-03-24 22:39:00,27.5,26.0,29.59,SSE,150,0.0,0.0,94,0.00,,,0.15,Wunderground v.1.15,2013-03-25 02:39:00,
2013-03-24 22:40:00,27.5,26.0,29.59,ENE,77,0.0,0.0,94,0.00,,,0.15,Wunderground v.1.15,2013-03-25 02:40:00,
2013-03-24 22:42:00,27.5,26.0,29.59,East,101,0.0,0.0,94,0.00,,,0.15,Wunderground v.1.15,2013-03-25 02:42:00,
2013-03-24 22:43:00,27.5,26.0,29.59,South,171,0.0,0.0,94,0.00,,,0.15,Wunderground v.1.15,2013-03-25 02:43:00,
2013-03-24 22:44:00,27.5,26.0,29.59,South,172,0.0,0.0,94,0.00,,,0.15,Wunderground v.1.15,2013-03-25 02:44:00,
2013-03-24 22:45:00,27.5,26.0,29.59,East,87,0.0,0.0,94,0.00,,,0.15,Wunderground v.1.15,2013-03-25 02:45:00,
2013-03-24 22:47:00,27.5,26.0,29.59,East,88,0.0,0.0,94,0.00,,,0.15,Wunderground v.1.15,2013-03-25 02:47:00,
2013-03-24 22:49:00,27.5,26.0,29.59,SE,144,0.0,0.0,94,0.00,,,0.15,Wunderground v.1.15,2013-03-25 02:49:00,
2013-03-24 22:50:00,27.5,26.0,29.59,SE,127,0.0,0.0,94,0.00,,,0.15,Wunderground v.1.15,2013-03-25 02:50:00,
2013-03-24 22:52:00,27.5,26.0,29.60,ESE,116,0.0,0.0,94,0.00,,,0.15,Wunderground v.1.15,2013-03-25 02:52:00,
2013-03-24 22:54:00,27.5,26.0,29.60,SSW,202,0.0,0.0,94,0.00,,,0.15,Wunderground v.1.15,2013-03-25 02:54:00,
2013-03-24 22:56:00,27.5,26.0,29.60,East,94,0.0,0.0,94,0.00,,,0.15,Wunderground v.1.15,2013-03-25 02:56:00,
2013-03-24 22:58:00,27.5,26.0,29.60,East,89,0.0,0.0,94,0.00,,,0.15,Wunderground v.1.15,2013-03-25 02:58:00,
2013-03-24 22:59:00,27.5,26.0,29.60,NE,41,0.0,0.0,94,0.00,,,0.15,Wunderground v.1.15,2013-03-25 02:59:00,
2013-03-24 23:00:00,27.5,26.0,29.60,NE,36,0.0,0.0,94,0.00,,,0.15,Wunderground v.1.15,2013-03-25 03:00:00,
2013-03-24 23:01:00,27.5,26.0,29.60,ESE,119,0.0,0.0,94,0.00,,,0.15,Wunderground v.1.15,2013-03-25 03:01:00,
2013-03-24 23:03:00,27.4,25.9,29.60,East,80,0.0,0.0,94,0.00,,,0.15,Wunderground v.1.15,2013-03-25 03:03:00,
2013-03-24 23:04:00,27.4,25.9,29.60,ENE,70,0.0,0.0,94,0.00,,,0.15,Wunderground v.1.15,2013-03-25 03:04:00,
2013-03-24 23:05:00,27.4,25.9,29.60,East,98,0.0,0.0,94,0.00,,,0.15,Wunderground v.1.15,2013-03-25 03:05:00,
2013-03-24 23:06:00,27.4,25.9,29.60,East,91,0.0,0.0,94,0.00,,,0.15,Wunderground v.1.15,2013-03-25 03:06:00,
2013-03-24 23:09:00,27.3,25.8,29.59,East,91,0.0,0.0,94,0.00,,,0.15,Wunderground v.1.15,2013-03-25 03:09:00,
2013-03-24 23:10:00,27.3,25.8,29.59,ENE,69,0.0,0.0,94,0.00,,,0.15,Wunderground v.1.15,2013-03-25 03:10:00,
2013-03-24 23:13:00,27.3,25.8,29.59,ESE,122,0.0,0.0,94,0.00,,,0.15,Wunderground v.1.15,2013-03-25 03:13:00,
2013-03-24 23:15:00,27.3,25.8,29.59,East,86,0.0,0.0,94,0.00,,,0.15,Wunderground v.1.15,2013-03-25 03:15:00,
2013-03-24 23:17:00,27.3,25.8,29.59,ESE,108,0.0,0.0,94,0.00,,,0.15,Wunderground v.1.15,2013-03-25 03:17:00,
2013-03-24 23:18:00,27.3,25.8,29.59,South,173,0.0,0.0,94,0.00,,,0.15,Wunderground v.1.15,2013-03-25 03:18:00,
2013-03-24 23:20:00,27.3,25.8,29.59,East,86,0.0,0.0,94,0.00,,,0.15,Wunderground v.1.15,2013-03-25 03:20:00,
2013-03-24 23:22:00,27.3,25.8,29.59,SSW,192,0.0,0.0,94,0.00,,,0.15,Wunderground v.1.15,2013-03-25 03:22:00,
2013-03-24 23:23:00,27.3,25.8,29.59,SSE,151,0.0,0.0,94,0.00,,,0.15,Wunderground v.1.15,2013-03-25 03:23:00,
2013-03-24 23:26:00,27.3,25.8,29.58,East,96,0.0,0.0,94,0.00,,,0.15,Wunderground v.1.15,2013-03-25 03:26:00,
2013-03-24 23:27:00,27.3,25.8,29.58,SE,141,0.0,0.0,94,0.00,,,0.15,Wunderground v.1.15,2013-03-25 03:27:00,
2013-03-24 23:28:00,27.3,25.8,29.58,SE,129,0.0,0.0,94,0.00,,,0.15,Wunderground v.1.15,2013-03-25 03:28:00,
2013-03-24 23:31:00,27.3,25.8,29.58,East,83,0.0,0.0,94,0.00,,,0.15,Wunderground v.1.15,2013-03-25 03:31:00,
2013-03-24 23:33:00,27.3,25.8,29.58,ENE,66,0.0,0.0,94,0.00,,,0.15,Wunderground v.1.15,2013-03-25 03:33:00,
2013-03-24 23:37:00,27.3,25.8,29.59,ESE,117,0.0,0.0,94,0.00,,,0.15,Wunderground v.1.15,2013-03-25 03:37:00,
2013-03-24 23:38:00,27.3,25.8,29.59,South,170,0.0,0.0,94,0.00,,,0.15,Wunderground v.1.15,2013-03-25 03:38:00,
2013-03-24 23:39:00,27.3,25.8,29.59,South,170,0.0,0.0,94,0.00,,,0.15,Wunderground v.1.15,2013-03-25 03:39:00,
2013-03-24 23:42:00,27.3,25.8,29.59,East,83,0.0,0.0,94,0.00,,,0.15,Wunderground v.1.15,2013-03-25 03:42:00,
2013-03-24 23:43:00,27.3,25.8,29.60,SSW,205,0.0,0.0,94,0.00,,,0.15,Wunderground v.1.15,2013-03-25 03:43:00,
2013-03-24 23:44:00,27.3,25.8,29.60,South,172,0.0,0.0,94,0.00,,,0.15,Wunderground v.1.15,2013-03-25 03:44:00,
2013-03-24 23:47:00,27.3,25.8,29.59,East,92,0.0,0.0,94,0.00,,,0.15,Wunderground v.1.15,2013-03-25 03:47:00,
2013-03-24 23:49:00,27.3,25.8,29.59,SSE,165,0.0,0.0,94,0.00,,,0.15,Wunderground v.1.15,2013-03-25 03:49:00,
2013-03-24 23:50:00,27.3,25.8,29.59,SE,128,0.0,0.0,94,0.00,,,0.15,Wunderground v.1.15,2013-03-25 03:50:00,
2013-03-24 23:53:00,27.3,25.8,29.59,NE,43,0.0,0.0,94,0.00,,,0.15,Wunderground v.1.15,2013-03-25 03:53:00,
2013-03-24 23:54:00,27.3,25.8,29.59,East,86,0.0,0.0,94,0.00,,,0.15,Wunderground v.1.15,2013-03-25 03:54:00,
2013-03-24 23:55:00,27.3,25.8,29.59,East,80,0.0,0.0,94,0.00,,,0.15,Wunderground v.1.15,2013-03-25 03:55:00,
2013-03-24 23:58:00,27.3,25.8,29.60,SE,143,0.0,0.0,94,0.00,,,0.15,Wunderground v.1.15,2013-03-25 03:58:00,
2013-03-24 23:59:00,27.3,25.8,29.60,SE,143,0.0,0.0,94,0.00,,,0.15,Wunderground v.1.15,2013-03-25 03:59:00,